GFSSW_prec_precacc24_108.txt.gz
Total_Precipitation_Accumulation
0.00 0.00 0.00 0.00 0.00 0.00 0.00 0.00 0.00 0.00 0.00 0.00 0.00 0.00 0.00 0.00 0.00 0.00 0.00 0.00 0.00 0.00 0.00 0.00 0.00 0.00 0.00 0.00 0.00 0.00 0.00 0.00 0.00 0.00 0.00 0.00 0.00 0.00 0.00 0.00 0.00 0.00 0.00 0.00 0.00
0.00 0.00 0.00 0.00 0.00 0.00 0.00 0.00 0.00 0.00 0.00 0.00 0.00 0.00 0.00 0.00 0.00 0.00 0.00 0.00 0.00 0.00 0.00 0.00 0.00 0.00 0.00 0.00 0.00 0.00 0.00 0.00 0.00 0.00 0.00 0.00 0.00 0.00 0.00 0.00 0.00 0.00 0.00 0.00 0.00
0.00 0.00 0.00 0.00 0.00 0.00 0.00 0.00 0.00 0.00 0.00 0.00 0.00 0.00 0.00 0.00 0.00 0.00 0.00 0.00 0.00 0.00 0.00 0.00 0.00 0.00 0.00 0.00 0.00 0.00 0.00 0.00 0.00 0.00 0.00 0.00 0.00 0.00 0.00 0.00 0.00 0.00 0.00 0.00 0.00
0.01 0.00 0.00 0.01 0.00 0.00 0.00 0.00 0.00 0.00 0.00 0.00 0.00 0.00 0.00 0.00 0.00 0.00 0.00 0.00 0.00 0.00 0.00 0.00 0.00 0.00 0.00 0.00 0.00 0.00 0.00 0.00 0.00 0.00 0.00 0.00 0.00 0.00 0.00 0.00 0.00 0.00 0.00 0.00 0.00
0.01 0.00 0.01 0.01 0.01 0.02 0.02 0.02 0.01 0.00 0.00 0.00 0.00 0.00 0.00 0.00 0.00 0.00 0.00 0.00 0.00 0.00 0.00 0.00 0.00 0.00 0.00 0.00 0.00 0.00 0.00 0.00 0.00 0.00 0.00 0.00 0.00 0.00 0.00 0.00 0.00 0.00 0.00 0.00 0.00
0.03 0.03 0.02 0.02 0.03 0.04 0.03 0.02 0.01 0.01 0.00 0.00 0.00 0.00 0.00 0.00 0.00 0.00 0.00 0.00 0.00 0.00 0.00 0.00 0.00 0.00 0.00 0.00 0.00 0.00 0.00 0.00 0.00 0.00 0.00 0.00 0.00 0.00 0.00 0.00 0.00 0.00 0.00 0.00 0.00
0.08 0.07 0.07 0.07 0.06 0.07 0.05 0.03 0.02 0.02 0.01 0.00 0.00 0.00 0.00 0.00 0.00 0.00 0.00 0.00 0.00 0.00 0.00 0.00 0.00 0.00 0.00 0.00 0.00 0.00 0.00 0.00 0.00 0.00 0.00 0.00 0.00 0.00 0.00 0.00 0.00 0.00 0.00 0.00 0.00
0.13 0.13 0.11 0.11 0.11 0.10 0.10 0.06 0.05 0.04 0.02 0.00 0.00 0.01 0.00 0.00 0.00 0.00 0.00 0.00 0.00 0.00 0.00 0.00 0.00 0.00 0.00 0.00 0.00 0.00 0.00 0.00 0.00 0.00 0.00 0.00 0.00 0.00 0.00 0.00 0.00 0.00 0.00 0.00 0.00
0.18 0.16 0.13 0.11 0.11 0.13 0.12 0.10 0.09 0.06 0.02 0.00 0.02 0.01 0.00 0.00 0.00 0.00 0.00 0.00 0.00 0.00 0.00 0.00 0.00 0.00 0.00 0.00 0.00 0.00 0.00 0.00 0.00 0.00 0.00 0.00 0.00 0.00 0.00 0.00 0.00 0.00 0.00 0.00 0.00
0.20 0.17 0.14 0.13 0.14 0.16 0.14 0.13 0.11 0.05 0.02 0.01 0.03 0.01 0.00 0.00 0.00 0.00 0.00 0.00 0.00 0.00 0.00 0.00 0.00 0.00 0.00 0.00 0.00 0.00 0.00 0.00 0.00 0.00 0.00 0.00 0.00 0.00 0.00 0.00 0.00 0.00 0.00 0.00 0.00
0.14 0.12 0.12 0.13 0.15 0.16 0.16 0.14 0.11 0.08 0.04 0.01 0.01 0.00 0.00 0.00 0.00 0.00 0.00 0.00 0.00 0.00 0.00 0.00 0.00 0.00 0.00 0.00 0.00 0.00 0.00 0.00 0.00 0.00 0.00 0.00 0.00 0.00 0.00 0.00 0.00 0.00 0.00 0.00 0.00
0.12 0.09 0.08 0.10 0.11 0.08 0.05 0.06 0.04 0.08 0.07 0.02 0.02 0.02 0.00 0.00 0.01 0.00 0.00 0.00 0.00 0.00 0.00 0.01 0.01 0.00 0.00 0.00 0.00 0.00 0.00 0.00 0.00 0.00 0.00 0.00 0.00 0.00 0.00 0.00 0.00 0.00 0.00 0.00 0.00
0.11 0.12 0.15 0.20 0.21 0.13 0.03 0.03 0.01 0.01 0.04 0.00 0.00 0.00 0.00 0.02 0.04 0.00 0.00 0.00 0.01 0.03 0.02 0.02 0.01 0.00 0.01 0.03 0.02 0.01 0.00 0.00 0.00 0.00 0.00 0.01 0.00 0.00 0.00 0.00 0.00 0.00 0.00 0.00 0.00
0.29 0.27 0.24 0.22 0.19 0.06 0.10 0.05 0.03 0.02 0.19 0.03 0.00 0.00 0.00 0.00 0.01 0.00 0.00 0.00 0.01 0.02 0.02 0.06 0.02 0.02 0.02 0.02 0.01 0.04 0.00 0.01 0.01 0.02 0.04 0.00 0.04 0.00 0.00 0.00 0.00 0.00 0.00 0.00 0.00
0.40 0.37 0.34 0.20 0.09 0.09 0.07 0.02 0.01 0.05 0.28 0.01 0.00 0.00 0.00 0.00 0.00 0.00 0.00 0.00 0.02 0.01 0.06 0.04 0.01 0.03 0.05 0.02 0.02 0.03 0.01 0.02 0.02 0.02 0.02 0.01 0.01 0.01 0.00 0.00 0.00 0.01 0.01 0.01 0.00
0.44 0.35 0.23 0.17 0.11 0.15 0.15 0.17 0.23 0.48 0.36 0.01 0.00 0.00 0.00 0.00 0.00 0.00 0.00 0.00 0.01 0.17 0.13 0.03 0.05 0.03 0.02 0.01 0.03 0.04 0.04 0.01 0.01 0.03 0.11 0.01 0.02 0.03 0.01 0.05 0.05 0.06 0.05 0.05 0.02
0.58 0.49 0.38 0.26 0.22 0.16 0.13 0.22 0.54 0.47 0.06 0.01 0.00 0.00 0.00 0.00 0.00 0.00 0.00 0.00 0.01 0.08 0.06 0.04 0.07 0.02 0.00 0.01 0.01 0.06 0.14 0.16 0.12 0.09 0.06 0.00 0.05 0.04 0.09 0.18 0.13 0.15 0.13 0.09 0.06
0.45 0.40 0.32 0.29 0.31 0.26 0.31 0.47 0.48 0.08 0.01 0.00 0.00 0.00 0.00 0.00 0.00 0.00 0.00 0.01 0.00 0.00 0.04 0.07 0.04 0.00 0.00 0.00 0.02 0.02 0.05 0.08 0.09 0.06 0.03 0.04 0.12 0.28 0.57 0.21 0.13 0.22 0.22 0.20 0.16
0.07 0.05 0.08 0.13 0.18 0.21 0.38 0.58 0.21 0.04 0.01 0.01 0.04 0.03 0.00 0.00 0.00 0.00 0.00 0.01 0.00 0.00 0.02 0.03 0.02 0.00 0.00 0.00 0.02 0.08 0.06 0.01 0.08 0.09 0.08 0.05 0.04 0.22 0.39 0.20 0.18 0.27 0.24 0.14 0.12
0.02 0.04 0.07 0.06 0.13 0.25 0.40 0.19 0.01 0.01 0.00 0.01 0.12 0.20 0.01 0.01 0.02 0.01 0.00 0.00 0.01 0.01 0.00 0.02 0.04 0.01 0.00 0.00 0.00 0.01 0.03 0.12 0.17 0.13 0.06 0.01 0.11 0.24 0.13 0.09 0.08 0.12 0.20 0.09 0.03
0.04 0.07 0.05 0.09 0.23 0.39 0.27 0.04 0.01 0.00 0.00 0.02 0.04 0.08 0.03 0.02 0.03 0.04 0.03 0.01 0.02 0.02 0.01 0.01 0.03 0.01 0.01 0.00 0.01 0.01 0.04 0.12 0.20 0.13 0.12 0.04 0.22 0.35 0.34 0.18 0.08 0.05 0.08 0.06 0.01
0.08 0.15 0.03 0.14 0.34 0.26 0.05 0.01 0.01 0.01 0.00 0.01 0.02 0.04 0.04 0.02 0.01 0.02 0.03 0.03 0.01 0.01 0.01 0.01 0.01 0.01 0.00 0.00 0.00 0.03 0.06 0.15 0.32 0.28 0.16 0.12 0.19 0.22 0.30 0.09 0.01 0.00 0.01 0.02 0.01
0.13 0.11 0.13 0.20 0.21 0.05 0.01 0.01 0.00 0.01 0.01 0.02 0.03 0.02 0.01 0.02 0.01 0.03 0.03 0.03 0.00 0.01 0.01 0.01 0.00 0.02 0.01 0.00 0.02 0.03 0.06 0.09 0.13 0.16 0.15 0.17 0.16 0.18 0.04 0.01 0.00 0.01 0.02 0.01 0.00
0.20 0.14 0.31 0.30 0.08 0.03 0.02 0.01 0.01 0.00 0.01 0.01 0.03 0.02 0.02 0.01 0.01 0.02 0.01 0.00 0.00 0.00 0.00 0.01 0.01 0.02 0.02 0.02 0.04 0.02 0.02 0.06 0.23 0.33 0.23 0.16 0.12 0.13 0.11 0.15 0.16 0.10 0.04 0.02 0.00
0.18 0.10 0.05 0.08 0.03 0.02 0.03 0.02 0.01 0.01 0.00 0.00 0.03 0.03 0.04 0.02 0.01 0.01 0.02 0.00 0.00 0.00 0.00 0.01 0.00 0.00 0.00 0.00 0.02 0.03 0.01 0.04 0.04 0.08 0.19 0.10 0.18 0.29 0.31 0.23 0.20 0.15 0.05 0.02 0.00
0.09 0.09 0.02 0.01 0.00 0.02 0.04 0.03 0.02 0.01 0.00 0.01 0.02 0.02 0.03 0.04 0.01 0.01 0.01 0.00 0.00 0.00 0.00 0.01 0.02 0.04 0.01 0.00 0.00 0.00 0.00 0.02 0.01 0.03 0.09 0.06 0.21 0.42 0.28 0.26 0.16 0.12 0.08 0.04 0.02
0.05 0.03 0.04 0.03 0.03 0.03 0.03 0.01 0.02 0.03 0.01 0.00 0.02 0.02 0.02 0.02 0.00 0.00 0.00 0.00 0.00 0.00 0.00 0.00 0.02 0.06 0.04 0.01 0.02 0.01 0.04 0.04 0.03 0.08 0.12 0.17 0.23 0.19 0.22 0.17 0.11 0.09 0.07 0.07 0.04

GFSSW_prec_precacc24_111.txt.gz
Total_Precipitation_Accumulation
0.01 0.00 0.00 0.00 0.00 0.00 0.00 0.00 0.00 0.00 0.00 0.00 0.00 0.00 0.00 0.00 0.00 0.00 0.00 0.00 0.00 0.00 0.00 0.00 0.00 0.00 0.00 0.00 0.00 0.00 0.00 0.00 0.00 0.00 0.00 0.00 0.00 0.00 0.00 0.00 0.00 0.00 0.00 0.00 0.00
0.00 0.00 0.00 0.00 0.00 0.00 0.00 0.00 0.00 0.00 0.00 0.00 0.00 0.00 0.00 0.00 0.00 0.00 0.00 0.00 0.00 0.00 0.00 0.00 0.00 0.00 0.00 0.00 0.00 0.00 0.00 0.00 0.00 0.00 0.00 0.00 0.00 0.00 0.00 0.00 0.00 0.00 0.00 0.00 0.00
0.00 0.00 0.00 0.00 0.00 0.00 0.00 0.00 0.00 0.00 0.00 0.00 0.00 0.00 0.00 0.00 0.00 0.00 0.00 0.00 0.00 0.00 0.00 0.00 0.00 0.00 0.00 0.00 0.00 0.00 0.00 0.00 0.00 0.00 0.00 0.00 0.00 0.00 0.00 0.00 0.00 0.00 0.00 0.00 0.00
0.01 0.00 0.00 0.01 0.00 0.00 0.00 0.01 0.00 0.00 0.00 0.00 0.00 0.00 0.00 0.00 0.00 0.00 0.00 0.00 0.00 0.00 0.00 0.00 0.00 0.00 0.00 0.00 0.00 0.00 0.00 0.00 0.00 0.00 0.00 0.00 0.00 0.00 0.00 0.00 0.00 0.00 0.00 0.00 0.00
0.01 0.00 0.01 0.01 0.01 0.02 0.02 0.02 0.01 0.01 0.00 0.00 0.00 0.00 0.00 0.00 0.00 0.00 0.00 0.00 0.00 0.00 0.00 0.00 0.00 0.00 0.00 0.00 0.00 0.00 0.00 0.00 0.00 0.00 0.00 0.00 0.00 0.00 0.00 0.00 0.00 0.00 0.00 0.00 0.00
0.03 0.03 0.02 0.02 0.03 0.04 0.03 0.02 0.01 0.01 0.00 0.00 0.00 0.00 0.00 0.00 0.00 0.00 0.00 0.00 0.00 0.00 0.00 0.00 0.00 0.00 0.00 0.00 0.00 0.00 0.00 0.00 0.00 0.00 0.00 0.00 0.00 0.00 0.00 0.00 0.00 0.00 0.00 0.00 0.00
0.08 0.07 0.07 0.07 0.06 0.07 0.05 0.03 0.02 0.02 0.01 0.00 0.00 0.00 0.00 0.00 0.00 0.00 0.00 0.00 0.00 0.00 0.00 0.00 0.00 0.00 0.00 0.00 0.00 0.00 0.00 0.00 0.00 0.00 0.00 0.00 0.00 0.00 0.00 0.00 0.00 0.00 0.00 0.00 0.00
0.13 0.13 0.11 0.11 0.11 0.10 0.10 0.06 0.05 0.05 0.03 0.00 0.00 0.01 0.00 0.00 0.00 0.00 0.00 0.00 0.00 0.00 0.00 0.00 0.00 0.00 0.00 0.00 0.00 0.00 0.00 0.00 0.00 0.00 0.00 0.00 0.00 0.00 0.00 0.00 0.00 0.00 0.00 0.00 0.00
0.17 0.16 0.13 0.11 0.11 0.13 0.12 0.11 0.11 0.08 0.03 0.00 0.02 0.01 0.00 0.00 0.00 0.00 0.00 0.00 0.00 0.00 0.00 0.00 0.00 0.00 0.00 0.00 0.00 0.00 0.00 0.00 0.00 0.00 0.00 0.00 0.00 0.00 0.00 0.00 0.00 0.00 0.00 0.00 0.00
0.18 0.17 0.14 0.13 0.14 0.16 0.15 0.15 0.13 0.06 0.03 0.01 0.03 0.01 0.00 0.00 0.00 0.00 0.00 0.00 0.00 0.00 0.00 0.00 0.00 0.00 0.00 0.00 0.00 0.00 0.00 0.00 0.00 0.00 0.00 0.00 0.00 0.00 0.00 0.00 0.00 0.00 0.00 0.00 0.00
0.13 0.12 0.12 0.13 0.15 0.18 0.18 0.15 0.11 0.08 0.04 0.01 0.01 0.00 0.00 0.00 0.00 0.00 0.00 0.00 0.00 0.00 0.00 0.00 0.00 0.00 0.00 0.00 0.00 0.00 0.00 0.00 0.00 0.00 0.00 0.00 0.00 0.00 0.00 0.00 0.00 0.00 0.00 0.00 0.00
0.11 0.09 0.08 0.10 0.12 0.09 0.05 0.06 0.04 0.08 0.07 0.02 0.02 0.02 0.00 0.00 0.01 0.00 0.00 0.00 0.00 0.00 0.00 0.01 0.01 0.00 0.00 0.00 0.00 0.00 0.00 0.00 0.00 0.00 0.00 0.00 0.00 0.00 0.00 0.00 0.00 0.00 0.00 0.00 0.00
0.11 0.12 0.15 0.21 0.22 0.14 0.03 0.03 0.01 0.01 0.04 0.00 0.00 0.00 0.00 0.02 0.04 0.00 0.00 0.00 0.01 0.03 0.02 0.02 0.01 0.00 0.01 0.03 0.02 0.01 0.00 0.00 0.00 0.00 0.00 0.01 0.00 0.00 0.00 0.00 0.00 0.00 0.00 0.00 0.00
0.29 0.27 0.24 0.25 0.24 0.06 0.12 0.06 0.03 0.02 0.19 0.03 0.00 0.00 0.00 0.00 0.01 0.00 0.00 0.00 0.01 0.02 0.02 0.06 0.02 0.02 0.02 0.02 0.01 0.04 0.00 0.01 0.01 0.02 0.04 0.01 0.07 0.00 0.00 0.00 0.00 0.00 0.00 0.00 0.01
0.40 0.37 0.35 0.22 0.09 0.09 0.07 0.02 0.01 0.05 0.28 0.01 0.00 0.00 0.00 0.00 0.00 0.00 0.00 0.00 0.02 0.01 0.06 0.04 0.01 0.03 0.05 0.02 0.02 0.03 0.01 0.02 0.02 0.02 0.04 0.01 0.06 0.02 0.00 0.00 0.00 0.01 0.00 0.01 0.01
0.44 0.36 0.24 0.19 0.11 0.15 0.15 0.17 0.24 0.50 0.37 0.01 0.00 0.00 0.00 0.00 0.00 0.00 0.00 0.00 0.01 0.17 0.13 0.03 0.05 0.03 0.02 0.01 0.03 0.04 0.04 0.01 0.01 0.06 0.18 0.02 0.02 0.04 0.01 0.05 0.04 0.04 0.04 0.04 0.02
0.58 0.50 0.39 0.26 0.22 0.16 0.13 0.24 0.66 0.51 0.06 0.01 0.00 0.00 0.00 0.00 0.00 0.00 0.00 0.00 0.01 0.08 0.06 0.04 0.07 0.02 0.00 0.01 0.01 0.06 0.14 0.18 0.15 0.13 0.08 0.00 0.06 0.05 0.04 0.14 0.15 0.17 0.18 0.07 0.05
0.47 0.46 0.36 0.29 0.31 0.26 0.34 0.57 0.57 0.08 0.01 0.00 0.00 0.00 0.00 0.00 0.00 0.00 0.00 0.01 0.00 0.00 0.04 0.07 0.04 0.00 0.00 0.00 0.02 0.02 0.05 0.09 0.12 0.09 0.05 0.04 0.14 0.07 0.16 0.24 0.44 0.32 0.39 0.24 0.15
0.08 0.06 0.09 0.14 0.18 0.23 0.46 0.73 0.25 0.04 0.01 0.01 0.04 0.03 0.00 0.00 0.00 0.00 0.00 0.01 0.00 0.00 0.02 0.03 0.02 0.00 0.00 0.00 0.02 0.09 0.07 0.01 0.10 0.11 0.13 0.05 0.04 0.08 0.40 0.55 0.40 0.33 0.35 0.22 0.13
0.02 0.07 0.10 0.11 0.21 0.39 0.58 0.30 0.03 0.01 0.00 0.02 0.13 0.20 0.01 0.01 0.02 0.01 0.01 0.01 0.01 0.01 0.00 0.02 0.04 0.01 0.00 0.00 0.00 0.01 0.03 0.14 0.18 0.11 0.07 0.02 0.17 0.39 0.27 0.56 0.34 0.28 0.23 0.11 0.05
0.05 0.08 0.06 0.16 0.34 0.61 0.48 0.15 0.01 0.01 0.01 0.04 0.05 0.09 0.03 0.02 0.03 0.05 0.05 0.03 0.03 0.02 0.01 0.02 0.02 0.01 0.00 0.00 0.01 0.01 0.04 0.13 0.24 0.14 0.12 0.06 0.31 0.57 0.82 0.69 0.28 0.17 0.11 0.06 0.01
0.15 0.26 0.04 0.17 0.53 0.47 0.13 0.03 0.02 0.03 0.02 0.03 0.03 0.04 0.04 0.02 0.01 0.03 0.03 0.06 0.02 0.03 0.04 0.02 0.02 0.01 0.00 0.00 0.00 0.01 0.03 0.15 0.35 0.37 0.35 0.21 0.25 0.31 0.45 0.34 0.08 0.01 0.01 0.02 0.01
0.18 0.23 0.16 0.29 0.34 0.12 0.02 0.01 0.03 0.01 0.03 0.03 0.03 0.02 0.01 0.02 0.01 0.03 0.03 0.03 0.00 0.01 0.03 0.02 0.05 0.02 0.02 0.00 0.00 0.00 0.00 0.06 0.10 0.10 0.09 0.14 0.15 0.21 0.08 0.04 0.01 0.01 0.02 0.01 0.00
0.32 0.25 0.39 0.50 0.16 0.04 0.02 0.02 0.06 0.02 0.01 0.01 0.03 0.02 0.02 0.01 0.01 0.02 0.02 0.00 0.00 0.00 0.00 0.00 0.00 0.01 0.02 0.01 0.00 0.00 0.00 0.02 0.12 0.19 0.12 0.13 0.12 0.14 0.08 0.05 0.14 0.10 0.04 0.02 0.00
0.32 0.18 0.07 0.13 0.06 0.03 0.05 0.03 0.02 0.02 0.00 0.00 0.03 0.03 0.04 0.02 0.01 0.01 0.03 0.00 0.00 0.00 0.00 0.00 0.00 0.00 0.00 0.00 0.00 0.00 0.00 0.00 0.01 0.03 0.13 0.08 0.17 0.25 0.24 0.15 0.17 0.15 0.05 0.02 0.00
0.21 0.15 0.14 0.01 0.00 0.02 0.07 0.08 0.03 0.01 0.01 0.01 0.02 0.02 0.03 0.05 0.01 0.01 0.02 0.01 0.00 0.00 0.00 0.00 0.00 0.00 0.00 0.00 0.00 0.00 0.00 0.00 0.00 0.01 0.02 0.01 0.12 0.39 0.26 0.19 0.16 0.12 0.08 0.04 0.02
0.10 0.05 0.27 0.32 0.09 0.05 0.04 0.02 0.05 0.07 0.03 0.01 0.02 0.03 0.04 0.04 0.00 0.00 0.00 0.00 0.00 0.00 0.00 0.00 0.00 0.00 0.00 0.00 0.01 0.01 0.04 0.04 0.02 0.04 0.04 0.04 0.06 0.16 0.22 0.17 0.11 0.09 0.07 0.07 0.04

GFSSW_prec_precacc24_114.txt.gz
Total_Precipitation_Accumulation
0.01 0.01 0.01 0.00 0.00 0.00 0.00 0.00 0.00 0.00 0.00 0.00 0.00 0.00 0.00 0.00 0.00 0.00 0.00 0.00 0.00 0.00 0.00 0.00 0.00 0.00 0.00 0.00 0.00 0.00 0.00 0.00 0.00 0.00 0.00 0.00 0.00 0.00 0.00 0.00 0.00 0.00 0.00 0.00 0.00
0.00 0.00 0.00 0.00 0.00 0.00 0.00 0.00 0.00 0.00 0.00 0.00 0.00 0.00 0.00 0.00 0.00 0.00 0.00 0.00 0.00 0.00 0.00 0.00 0.00 0.00 0.00 0.00 0.00 0.00 0.00 0.00 0.00 0.00 0.00 0.00 0.00 0.00 0.00 0.00 0.00 0.00 0.00 0.00 0.00
0.00 0.00 0.00 0.00 0.00 0.00 0.00 0.00 0.00 0.00 0.00 0.00 0.00 0.00 0.00 0.00 0.00 0.00 0.00 0.00 0.00 0.00 0.00 0.00 0.00 0.00 0.00 0.00 0.00 0.00 0.00 0.00 0.00 0.00 0.00 0.00 0.00 0.00 0.00 0.00 0.00 0.00 0.00 0.00 0.00
0.01 0.00 0.00 0.01 0.00 0.00 0.00 0.01 0.00 0.00 0.00 0.00 0.00 0.00 0.00 0.00 0.00 0.00 0.00 0.00 0.00 0.00 0.00 0.00 0.00 0.00 0.00 0.00 0.00 0.00 0.00 0.00 0.00 0.00 0.00 0.00 0.00 0.00 0.00 0.00 0.00 0.00 0.00 0.00 0.00
0.01 0.00 0.01 0.01 0.01 0.02 0.02 0.02 0.01 0.01 0.00 0.00 0.00 0.00 0.00 0.00 0.00 0.00 0.00 0.00 0.00 0.00 0.00 0.00 0.00 0.00 0.00 0.00 0.00 0.00 0.00 0.00 0.00 0.00 0.00 0.00 0.00 0.00 0.00 0.00 0.00 0.00 0.00 0.00 0.00
0.03 0.03 0.02 0.02 0.03 0.04 0.03 0.02 0.01 0.01 0.01 0.00 0.00 0.00 0.00 0.00 0.00 0.00 0.00 0.00 0.00 0.00 0.00 0.00 0.00 0.00 0.00 0.00 0.00 0.00 0.00 0.00 0.00 0.00 0.00 0.00 0.00 0.00 0.00 0.00 0.00 0.00 0.00 0.00 0.00
0.07 0.07 0.07 0.07 0.06 0.07 0.05 0.03 0.02 0.03 0.02 0.00 0.00 0.00 0.00 0.00 0.00 0.00 0.00 0.00 0.00 0.00 0.00 0.00 0.00 0.00 0.00 0.00 0.00 0.00 0.00 0.00 0.00 0.00 0.00 0.00 0.00 0.00 0.00 0.00 0.00 0.00 0.00 0.00 0.00
0.10 0.11 0.11 0.11 0.11 0.10 0.10 0.06 0.05 0.05 0.03 0.01 0.00 0.01 0.00 0.00 0.00 0.00 0.00 0.00 0.00 0.00 0.00 0.00 0.00 0.00 0.00 0.00 0.00 0.00 0.00 0.00 0.00 0.00 0.00 0.00 0.00 0.00 0.00 0.00 0.00 0.00 0.00 0.00 0.00
0.14 0.14 0.13 0.11 0.11 0.13 0.12 0.11 0.11 0.09 0.04 0.01 0.01 0.01 0.00 0.00 0.00 0.00 0.00 0.00 0.00 0.00 0.00 0.00 0.00 0.00 0.00 0.00 0.00 0.00 0.00 0.00 0.00 0.00 0.00 0.00 0.00 0.00 0.00 0.00 0.00 0.00 0.00 0.00 0.00
0.14 0.14 0.12 0.12 0.14 0.16 0.16 0.15 0.14 0.07 0.03 0.01 0.03 0.01 0.00 0.00 0.00 0.00 0.00 0.00 0.00 0.00 0.00 0.00 0.00 0.00 0.00 0.00 0.00 0.00 0.00 0.00 0.00 0.00 0.00 0.00 0.00 0.00 0.00 0.00 0.00 0.00 0.00 0.00 0.00
0.11 0.10 0.10 0.12 0.15 0.20 0.18 0.15 0.11 0.08 0.04 0.01 0.01 0.00 0.00 0.00 0.00 0.00 0.00 0.00 0.00 0.00 0.00 0.00 0.00 0.00 0.00 0.00 0.00 0.00 0.00 0.00 0.00 0.00 0.00 0.00 0.00 0.00 0.00 0.00 0.00 0.00 0.00 0.00 0.00
0.11 0.09 0.08 0.10 0.13 0.10 0.05 0.06 0.04 0.08 0.07 0.02 0.02 0.02 0.00 0.00 0.01 0.00 0.00 0.00 0.00 0.00 0.00 0.01 0.01 0.00 0.00 0.00 0.00 0.00 0.00 0.00 0.00 0.00 0.00 0.00 0.00 0.00 0.00 0.00 0.00 0.00 0.00 0.00 0.00
0.11 0.12 0.15 0.21 0.24 0.15 0.03 0.03 0.01 0.01 0.04 0.00 0.00 0.00 0.00 0.02 0.04 0.00 0.00 0.00 0.01 0.03 0.02 0.02 0.01 0.00 0.01 0.03 0.02 0.01 0.00 0.00 0.00 0.00 0.00 0.01 0.00 0.00 0.00 0.00 0.00 0.00 0.00 0.00 0.00
0.29 0.27 0.24 0.25 0.29 0.07 0.12 0.06 0.03 0.02 0.19 0.03 0.00 0.00 0.00 0.00 0.01 0.00 0.00 0.00 0.01 0.02 0.02 0.06 0.02 0.02 0.02 0.02 0.01 0.04 0.00 0.01 0.01 0.02 0.04 0.01 0.07 0.00 0.00 0.00 0.00 0.00 0.01 0.04 0.07
0.40 0.37 0.35 0.22 0.09 0.09 0.07 0.02 0.01 0.05 0.28 0.01 0.00 0.00 0.00 0.00 0.00 0.00 0.00 0.00 0.02 0.01 0.06 0.04 0.01 0.03 0.05 0.02 0.02 0.03 0.01 0.02 0.02 0.02 0.04 0.01 0.06 0.02 0.00 0.00 0.00 0.00 0.02 0.09 0.12
0.44 0.36 0.25 0.20 0.12 0.15 0.15 0.17 0.25 0.50 0.37 0.01 0.00 0.00 0.00 0.00 0.00 0.00 0.00 0.00 0.01 0.17 0.13 0.03 0.05 0.03 0.02 0.01 0.03 0.04 0.04 0.01 0.01 0.06 0.18 0.02 0.02 0.04 0.00 0.01 0.00 0.05 0.05 0.05 0.08
0.58 0.50 0.40 0.27 0.23 0.16 0.13 0.26 0.70 0.52 0.06 0.01 0.00 0.00 0.00 0.00 0.00 0.00 0.00 0.00 0.01 0.08 0.06 0.04 0.07 0.02 0.00 0.01 0.01 0.06 0.14 0.18 0.15 0.13 0.08 0.00 0.06 0.05 0.02 0.04 0.08 0.17 0.38 0.18 0.03
0.47 0.46 0.37 0.29 0.31 0.26 0.35 0.61 0.59 0.08 0.01 0.00 0.00 0.00 0.00 0.00 0.00 0.00 0.00 0.01 0.00 0.00 0.04 0.07 0.04 0.00 0.00 0.00 0.02 0.02 0.05 0.09 0.12 0.09 0.05 0.04 0.14 0.08 0.14 0.25 0.56 0.46 0.53 0.37 0.13
0.08 0.06 0.09 0.14 0.19 0.27 0.53 0.79 0.26 0.04 0.01 0.01 0.04 0.03 0.00 0.00 0.00 0.00 0.00 0.01 0.00 0.00 0.02 0.03 0.02 0.00 0.00 0.00 0.02 0.09 0.07 0.01 0.10 0.11 0.13 0.05 0.03 0.09 0.53 1.07 0.85 0.75 0.58 0.36 0.21
0.01 0.06 0.10 0.11 0.24 0.53 0.74 0.36 0.03 0.01 0.00 0.03 0.13 0.20 0.01 0.01 0.02 0.01 0.01 0.01 0.01 0.01 0.00 0.02 0.04 0.01 0.00 0.00 0.00 0.01 0.02 0.13 0.18 0.11 0.07 0.02 0.16 0.49 0.54 1.00 0.83 0.71 0.62 0.45 0.19
0.05 0.08 0.06 0.17 0.47 0.81 0.67 0.18 0.02 0.01 0.01 0.04 0.05 0.10 0.03 0.02 0.03 0.05 0.06 0.03 0.03 0.03 0.02 0.02 0.03 0.02 0.01 0.01 0.01 0.00 0.04 0.11 0.23 0.14 0.13 0.07 0.36 0.68 0.94 0.83 0.48 0.43 0.33 0.17 0.02
0.20 0.31 0.04 0.18 0.70 0.70 0.21 0.04 0.02 0.03 0.03 0.04 0.04 0.05 0.04 0.02 0.02 0.03 0.03 0.06 0.02 0.03 0.05 0.04 0.05 0.02 0.00 0.00 0.00 0.00 0.01 0.09 0.28 0.34 0.37 0.30 0.39 0.38 0.46 0.37 0.12 0.02 0.02 0.04 0.01
0.33 0.29 0.20 0.32 0.46 0.21 0.06 0.02 0.04 0.03 0.04 0.06 0.05 0.02 0.01 0.02 0.01 0.03 0.03 0.03 0.00 0.02 0.07 0.11 0.19 0.12 0.06 0.02 0.00 0.00 0.00 0.02 0.06 0.08 0.07 0.11 0.16 0.23 0.11 0.05 0.02 0.01 0.02 0.01 0.00
0.51 0.40 0.47 0.61 0.21 0.07 0.03 0.04 0.09 0.03 0.02 0.04 0.04 0.03 0.02 0.01 0.01 0.02 0.02 0.00 0.00 0.00 0.02 0.04 0.09 0.07 0.06 0.02 0.00 0.00 0.00 0.00 0.01 0.03 0.02 0.02 0.03 0.10 0.07 0.04 0.05 0.06 0.04 0.02 0.00
0.64 0.40 0.09 0.15 0.08 0.03 0.06 0.04 0.02 0.04 0.05 0.04 0.07 0.03 0.04 0.02 0.01 0.01 0.03 0.00 0.00 0.00 0.00 0.01 0.01 0.01 0.01 0.00 0.00 0.00 0.00 0.00 0.00 0.00 0.02 0.00 0.02 0.09 0.22 0.14 0.10 0.08 0.05 0.02 0.00
0.44 0.31 0.17 0.01 0.00 0.02 0.09 0.15 0.04 0.02 0.05 0.04 0.11 0.06 0.03 0.05 0.01 0.01 0.03 0.01 0.00 0.00 0.00 0.00 0.03 0.02 0.01 0.00 0.00 0.00 0.00 0.00 0.00 0.00 0.00 0.00 0.01 0.03 0.13 0.18 0.15 0.12 0.08 0.04 0.02
0.19 0.11 0.31 0.36 0.11 0.06 0.04 0.03 0.07 0.13 0.07 0.02 0.03 0.04 0.05 0.04 0.01 0.00 0.00 0.00 0.00 0.00 0.00 0.00 0.02 0.03 0.03 0.01 0.02 0.01 0.03 0.04 0.02 0.01 0.02 0.02 0.01 0.04 0.12 0.16 0.11 0.09 0.08 0.07 0.04

GFSSW_prec_precacc24_117.txt.gz
Total_Precipitation_Accumulation
0.01 0.01 0.01 0.00 0.00 0.00 0.00 0.00 0.00 0.00 0.00 0.00 0.00 0.00 0.00 0.00 0.00 0.00 0.00 0.00 0.00 0.00 0.00 0.00 0.00 0.00 0.00 0.00 0.00 0.00 0.00 0.00 0.00 0.00 0.00 0.00 0.00 0.00 0.00 0.00 0.00 0.00 0.00 0.00 0.00
0.00 0.00 0.00 0.00 0.00 0.00 0.00 0.00 0.00 0.00 0.00 0.00 0.00 0.00 0.00 0.00 0.00 0.00 0.00 0.00 0.00 0.00 0.00 0.00 0.00 0.00 0.00 0.00 0.00 0.00 0.00 0.00 0.00 0.00 0.00 0.00 0.00 0.00 0.00 0.00 0.00 0.00 0.00 0.00 0.00
0.00 0.00 0.00 0.00 0.00 0.00 0.00 0.00 0.00 0.00 0.00 0.00 0.00 0.00 0.00 0.00 0.00 0.00 0.00 0.00 0.00 0.00 0.00 0.00 0.00 0.00 0.00 0.00 0.00 0.00 0.00 0.00 0.00 0.00 0.00 0.00 0.00 0.00 0.00 0.00 0.00 0.00 0.00 0.00 0.00
0.01 0.00 0.00 0.01 0.00 0.00 0.00 0.01 0.00 0.00 0.00 0.00 0.00 0.00 0.00 0.00 0.00 0.00 0.00 0.00 0.00 0.00 0.00 0.00 0.00 0.00 0.00 0.00 0.00 0.00 0.00 0.00 0.00 0.00 0.00 0.00 0.00 0.00 0.00 0.00 0.00 0.00 0.00 0.00 0.00
0.01 0.00 0.01 0.01 0.01 0.02 0.02 0.02 0.01 0.01 0.00 0.00 0.00 0.00 0.00 0.00 0.00 0.00 0.00 0.00 0.00 0.00 0.00 0.00 0.00 0.00 0.00 0.00 0.00 0.00 0.00 0.00 0.00 0.00 0.00 0.00 0.00 0.00 0.00 0.00 0.00 0.00 0.00 0.00 0.00
0.01 0.02 0.02 0.02 0.03 0.04 0.03 0.02 0.01 0.01 0.01 0.00 0.00 0.00 0.00 0.00 0.00 0.00 0.00 0.00 0.00 0.00 0.00 0.00 0.00 0.00 0.00 0.00 0.00 0.00 0.00 0.00 0.00 0.00 0.00 0.00 0.00 0.00 0.00 0.00 0.00 0.00 0.00 0.00 0.00
0.05 0.06 0.06 0.06 0.06 0.07 0.05 0.03 0.02 0.03 0.02 0.01 0.00 0.00 0.00 0.00 0.00 0.00 0.00 0.00 0.00 0.00 0.00 0.00 0.00 0.00 0.00 0.00 0.00 0.00 0.00 0.00 0.00 0.00 0.00 0.00 0.00 0.00 0.00 0.00 0.00 0.00 0.00 0.00 0.00
0.03 0.07 0.08 0.10 0.10 0.10 0.10 0.06 0.05 0.05 0.04 0.01 0.00 0.00 0.00 0.00 0.00 0.00 0.00 0.00 0.00 0.00 0.00 0.00 0.00 0.00 0.00 0.00 0.00 0.00 0.00 0.00 0.00 0.00 0.00 0.00 0.00 0.00 0.00 0.00 0.00 0.00 0.00 0.00 0.00
0.05 0.06 0.07 0.08 0.09 0.12 0.12 0.12 0.12 0.10 0.05 0.02 0.01 0.01 0.00 0.00 0.00 0.00 0.00 0.00 0.00 0.00 0.00 0.00 0.00 0.00 0.00 0.00 0.00 0.00 0.00 0.00 0.00 0.00 0.00 0.00 0.00 0.00 0.00 0.00 0.00 0.00 0.00 0.00 0.00
0.06 0.07 0.08 0.08 0.11 0.15 0.16 0.16 0.14 0.07 0.03 0.01 0.03 0.01 0.00 0.00 0.00 0.00 0.00 0.00 0.00 0.00 0.00 0.00 0.00 0.00 0.00 0.00 0.00 0.00 0.00 0.00 0.00 0.00 0.00 0.00 0.00 0.00 0.00 0.00 0.00 0.00 0.00 0.00 0.00
0.06 0.08 0.08 0.08 0.11 0.18 0.18 0.15 0.11 0.08 0.04 0.01 0.01 0.00 0.00 0.00 0.00 0.00 0.00 0.00 0.00 0.00 0.00 0.00 0.00 0.00 0.00 0.00 0.00 0.00 0.00 0.00 0.00 0.00 0.00 0.00 0.00 0.00 0.00 0.00 0.00 0.00 0.00 0.00 0.00
0.09 0.09 0.07 0.09 0.12 0.09 0.04 0.06 0.04 0.08 0.07 0.02 0.02 0.02 0.00 0.00 0.01 0.00 0.00 0.00 0.00 0.00 0.00 0.01 0.01 0.00 0.00 0.00 0.00 0.00 0.00 0.00 0.00 0.00 0.00 0.00 0.00 0.00 0.00 0.00 0.00 0.00 0.00 0.00 0.00
0.09 0.11 0.15 0.20 0.25 0.16 0.03 0.03 0.01 0.01 0.04 0.00 0.00 0.00 0.00 0.02 0.04 0.00 0.00 0.00 0.01 0.03 0.02 0.02 0.01 0.00 0.01 0.03 0.02 0.01 0.00 0.00 0.00 0.00 0.00 0.01 0.00 0.00 0.00 0.00 0.00 0.00 0.00 0.00 0.00
0.23 0.25 0.24 0.26 0.30 0.07 0.12 0.06 0.03 0.02 0.19 0.03 0.00 0.00 0.00 0.00 0.01 0.00 0.00 0.00 0.01 0.02 0.02 0.06 0.02 0.02 0.02 0.02 0.01 0.04 0.00 0.01 0.01 0.02 0.04 0.01 0.07 0.00 0.00 0.00 0.00 0.00 0.01 0.04 0.07
0.36 0.36 0.34 0.22 0.09 0.09 0.07 0.02 0.01 0.05 0.28 0.01 0.00 0.00 0.00 0.00 0.00 0.00 0.00 0.00 0.02 0.01 0.06 0.04 0.01 0.03 0.05 0.02 0.02 0.03 0.01 0.02 0.02 0.02 0.04 0.01 0.06 0.02 0.00 0.00 0.00 0.00 0.02 0.09 0.12
0.37 0.33 0.24 0.21 0.13 0.15 0.15 0.17 0.25 0.50 0.37 0.01 0.00 0.00 0.00 0.00 0.00 0.00 0.00 0.00 0.01 0.17 0.13 0.03 0.05 0.03 0.02 0.01 0.03 0.04 0.04 0.01 0.01 0.06 0.18 0.02 0.02 0.04 0.01 0.01 0.01 0.05 0.05 0.06 0.08
0.56 0.48 0.39 0.27 0.23 0.16 0.14 0.26 0.70 0.52 0.06 0.01 0.00 0.00 0.00 0.00 0.00 0.00 0.00 0.00 0.01 0.08 0.06 0.04 0.07 0.02 0.00 0.01 0.01 0.06 0.14 0.19 0.15 0.13 0.08 0.00 0.06 0.05 0.03 0.04 0.09 0.19 0.42 0.29 0.18
0.47 0.46 0.37 0.30 0.31 0.27 0.38 0.63 0.59 0.08 0.01 0.00 0.00 0.00 0.00 0.00 0.00 0.00 0.00 0.01 0.00 0.00 0.04 0.07 0.04 0.00 0.00 0.00 0.02 0.02 0.05 0.09 0.12 0.09 0.05 0.04 0.14 0.09 0.15 0.26 0.62 0.60 0.68 0.57 0.42
0.08 0.06 0.10 0.14 0.20 0.30 0.58 0.84 0.26 0.04 0.01 0.01 0.03 0.03 0.00 0.00 0.00 0.00 0.00 0.01 0.00 0.00 0.02 0.03 0.02 0.00 0.00 0.00 0.02 0.09 0.07 0.00 0.10 0.11 0.13 0.05 0.03 0.11 0.54 1.10 0.92 0.89 0.75 0.53 0.47
0.01 0.06 0.10 0.12 0.26 0.61 0.82 0.39 0.02 0.01 0.00 0.02 0.12 0.20 0.01 0.01 0.02 0.01 0.01 0.01 0.01 0.01 0.00 0.02 0.04 0.01 0.00 0.00 0.00 0.01 0.02 0.12 0.17 0.09 0.07 0.02 0.16 0.49 0.54 1.04 0.91 0.84 0.66 0.60 0.45
0.05 0.08 0.06 0.18 0.55 0.97 0.82 0.21 0.01 0.01 0.01 0.04 0.04 0.10 0.03 0.02 0.03 0.05 0.06 0.03 0.03 0.03 0.02 0.02 0.04 0.02 0.01 0.01 0.01 0.00 0.03 0.11 0.21 0.13 0.12 0.07 0.36 0.68 0.94 0.83 0.51 0.50 0.42 0.32 0.19
0.23 0.31 0.04 0.20 0.82 0.82 0.27 0.05 0.02 0.02 0.03 0.04 0.04 0.05 0.04 0.02 0.02 0.03 0.03 0.06 0.02 0.03 0.07 0.07 0.08 0.03 0.00 0.00 0.00 0.00 0.00 0.09 0.24 0.31 0.37 0.29 0.39 0.38 0.46 0.39 0.12 0.01 0.02 0.06 0.04
0.37 0.34 0.21 0.38 0.50 0.27 0.07 0.02 0.04 0.03 0.04 0.06 0.05 0.02 0.01 0.02 0.02 0.03 0.03 0.03 0.00 0.02 0.08 0.15 0.22 0.15 0.10 0.05 0.02 0.02 0.00 0.02 0.05 0.06 0.05 0.06 0.15 0.22 0.11 0.05 0.02 0.00 0.00 0.00 0.00
0.58 0.47 0.59 0.70 0.23 0.08 0.04 0.07 0.12 0.03 0.02 0.05 0.05 0.04 0.03 0.01 0.01 0.02 0.02 0.00 0.00 0.00 0.03 0.08 0.10 0.08 0.07 0.04 0.01 0.01 0.01 0.00 0.01 0.02 0.01 0.01 0.02 0.08 0.06 0.00 0.03 0.05 0.04 0.02 0.00
0.78 0.49 0.10 0.22 0.10 0.04 0.06 0.05 0.03 0.05 0.06 0.05 0.10 0.05 0.05 0.03 0.01 0.01 0.03 0.00 0.00 0.00 0.00 0.02 0.01 0.02 0.03 0.05 0.05 0.04 0.02 0.01 0.00 0.00 0.00 0.00 0.00 0.01 0.00 0.00 0.05 0.08 0.05 0.02 0.00
0.57 0.37 0.20 0.02 0.00 0.02 0.11 0.16 0.04 0.02 0.06 0.06 0.12 0.07 0.07 0.06 0.02 0.01 0.03 0.01 0.00 0.00 0.00 0.00 0.03 0.02 0.02 0.00 0.00 0.01 0.00 0.00 0.00 0.00 0.00 0.00 0.00 0.00 0.00 0.01 0.04 0.11 0.08 0.04 0.02
0.21 0.12 0.38 0.41 0.11 0.07 0.05 0.03 0.07 0.15 0.08 0.02 0.03 0.07 0.12 0.12 0.03 0.01 0.01 0.01 0.01 0.00 0.00 0.00 0.02 0.05 0.06 0.03 0.15 0.12 0.00 0.01 0.02 0.01 0.01 0.01 0.00 0.00 0.01 0.04 0.06 0.08 0.07 0.06 0.04

GFSSW_prec_precacc24_120.txt.gz
Total_Precipitation_Accumulation
0.01 0.01 0.01 0.00 0.00 0.00 0.00 0.00 0.00 0.00 0.00 0.00 0.00 0.00 0.00 0.00 0.00 0.00 0.00 0.00 0.00 0.00 0.00 0.00 0.00 0.00 0.00 0.00 0.00 0.00 0.00 0.00 0.00 0.00 0.00 0.00 0.00 0.00 0.00 0.00 0.00 0.00 0.00 0.00 0.00
0.00 0.00 0.00 0.00 0.00 0.00 0.00 0.00 0.00 0.00 0.00 0.00 0.00 0.00 0.00 0.00 0.00 0.00 0.00 0.00 0.00 0.00 0.00 0.00 0.00 0.00 0.00 0.00 0.00 0.00 0.00 0.00 0.00 0.00 0.00 0.00 0.00 0.00 0.00 0.00 0.00 0.00 0.00 0.00 0.00
0.00 0.00 0.00 0.00 0.00 0.00 0.00 0.00 0.00 0.00 0.00 0.00 0.00 0.00 0.00 0.00 0.00 0.00 0.00 0.00 0.00 0.00 0.00 0.00 0.00 0.00 0.00 0.00 0.00 0.00 0.00 0.00 0.00 0.00 0.00 0.00 0.00 0.00 0.00 0.00 0.00 0.00 0.00 0.00 0.00
0.00 0.00 0.00 0.01 0.00 0.00 0.00 0.01 0.00 0.00 0.00 0.00 0.00 0.00 0.00 0.00 0.00 0.00 0.00 0.00 0.00 0.00 0.00 0.00 0.00 0.00 0.00 0.00 0.00 0.00 0.00 0.00 0.00 0.00 0.00 0.00 0.00 0.00 0.00 0.00 0.00 0.00 0.00 0.00 0.00
0.00 0.00 0.01 0.01 0.01 0.02 0.02 0.02 0.01 0.01 0.00 0.00 0.00 0.00 0.00 0.00 0.00 0.00 0.00 0.00 0.00 0.00 0.00 0.00 0.00 0.00 0.00 0.00 0.00 0.00 0.00 0.00 0.00 0.00 0.00 0.00 0.00 0.00 0.00 0.00 0.00 0.00 0.00 0.00 0.00
0.00 0.00 0.01 0.01 0.02 0.04 0.03 0.02 0.01 0.01 0.01 0.00 0.00 0.00 0.00 0.00 0.00 0.00 0.00 0.00 0.00 0.00 0.00 0.00 0.00 0.00 0.00 0.00 0.00 0.00 0.00 0.00 0.00 0.00 0.00 0.00 0.00 0.00 0.00 0.00 0.00 0.00 0.00 0.00 0.00
0.01 0.01 0.01 0.02 0.04 0.06 0.05 0.02 0.02 0.03 0.02 0.01 0.00 0.00 0.00 0.00 0.00 0.00 0.00 0.00 0.00 0.00 0.00 0.00 0.00 0.00 0.00 0.00 0.00 0.00 0.00 0.00 0.00 0.00 0.00 0.00 0.00 0.00 0.00 0.00 0.00 0.00 0.00 0.00 0.00
0.01 0.02 0.02 0.03 0.04 0.05 0.06 0.04 0.05 0.05 0.04 0.03 0.00 0.00 0.00 0.00 0.00 0.00 0.00 0.00 0.00 0.00 0.00 0.00 0.00 0.00 0.00 0.00 0.00 0.00 0.00 0.00 0.00 0.00 0.00 0.00 0.00 0.00 0.00 0.00 0.00 0.00 0.00 0.00 0.00
0.02 0.02 0.03 0.03 0.04 0.05 0.04 0.06 0.09 0.09 0.06 0.02 0.00 0.00 0.00 0.00 0.00 0.00 0.00 0.00 0.00 0.00 0.00 0.00 0.00 0.00 0.00 0.00 0.00 0.00 0.00 0.00 0.00 0.00 0.00 0.00 0.00 0.00 0.00 0.00 0.00 0.00 0.00 0.00 0.00
0.02 0.03 0.05 0.05 0.06 0.09 0.10 0.12 0.12 0.06 0.03 0.01 0.02 0.01 0.00 0.00 0.00 0.00 0.00 0.00 0.00 0.00 0.00 0.00 0.00 0.00 0.00 0.00 0.00 0.00 0.00 0.00 0.00 0.00 0.00 0.00 0.00 0.00 0.00 0.00 0.00 0.00 0.00 0.00 0.00
0.02 0.04 0.05 0.07 0.09 0.13 0.13 0.10 0.06 0.02 0.01 0.00 0.01 0.00 0.00 0.00 0.00 0.00 0.00 0.00 0.00 0.00 0.00 0.00 0.00 0.00 0.00 0.00 0.00 0.00 0.00 0.00 0.00 0.00 0.00 0.00 0.00 0.00 0.00 0.00 0.00 0.00 0.00 0.00 0.00
0.03 0.05 0.05 0.08 0.11 0.08 0.03 0.03 0.01 0.00 0.01 0.01 0.02 0.02 0.00 0.00 0.01 0.00 0.00 0.00 0.00 0.00 0.00 0.01 0.01 0.00 0.00 0.00 0.00 0.00 0.00 0.00 0.00 0.00 0.00 0.00 0.00 0.00 0.00 0.00 0.00 0.00 0.00 0.00 0.00
0.04 0.06 0.10 0.17 0.23 0.16 0.03 0.03 0.01 0.00 0.03 0.00 0.00 0.00 0.00 0.02 0.04 0.00 0.00 0.00 0.01 0.03 0.02 0.02 0.01 0.00 0.01 0.03 0.02 0.01 0.00 0.00 0.00 0.00 0.00 0.01 0.00 0.00 0.00 0.00 0.00 0.00 0.00 0.00 0.00
0.07 0.12 0.16 0.23 0.29 0.08 0.12 0.06 0.03 0.02 0.18 0.03 0.00 0.00 0.00 0.00 0.01 0.00 0.00 0.00 0.01 0.02 0.02 0.06 0.02 0.02 0.02 0.02 0.01 0.04 0.00 0.01 0.01 0.02 0.04 0.01 0.07 0.00 0.00 0.00 0.00 0.00 0.01 0.04 0.07
0.18 0.23 0.26 0.16 0.04 0.04 0.04 0.02 0.01 0.05 0.26 0.01 0.00 0.00 0.00 0.00 0.00 0.00 0.00 0.00 0.02 0.01 0.06 0.04 0.01 0.03 0.05 0.02 0.02 0.03 0.01 0.02 0.02 0.02 0.04 0.01 0.06 0.02 0.00 0.00 0.01 0.01 0.02 0.10 0.12
0.27 0.23 0.16 0.14 0.08 0.12 0.14 0.17 0.24 0.49 0.36 0.01 0.00 0.00 0.00 0.00 0.00 0.00 0.00 0.00 0.01 0.17 0.13 0.03 0.05 0.03 0.02 0.01 0.03 0.04 0.04 0.01 0.01 0.06 0.18 0.02 0.02 0.04 0.01 0.02 0.01 0.07 0.07 0.09 0.12
0.30 0.32 0.28 0.17 0.19 0.15 0.14 0.26 0.69 0.51 0.06 0.01 0.00 0.00 0.00 0.00 0.00 0.00 0.00 0.00 0.01 0.08 0.06 0.04 0.07 0.02 0.00 0.01 0.01 0.06 0.14 0.21 0.16 0.13 0.08 0.00 0.06 0.05 0.04 0.04 0.09 0.19 0.44 0.34 0.25
0.37 0.42 0.35 0.28 0.30 0.26 0.39 0.63 0.58 0.08 0.01 0.00 0.00 0.00 0.00 0.00 0.00 0.00 0.00 0.01 0.00 0.00 0.04 0.07 0.04 0.00 0.00 0.00 0.02 0.02 0.05 0.11 0.13 0.09 0.05 0.04 0.14 0.09 0.15 0.26 0.62 0.60 0.69 0.61 0.50
0.08 0.06 0.10 0.14 0.20 0.31 0.60 0.84 0.26 0.04 0.01 0.01 0.02 0.02 0.00 0.00 0.00 0.00 0.00 0.01 0.00 0.00 0.02 0.03 0.02 0.00 0.00 0.00 0.02 0.09 0.07 0.01 0.12 0.13 0.14 0.05 0.03 0.12 0.54 1.10 0.92 0.89 0.75 0.54 0.49
0.01 0.06 0.10 0.12 0.26 0.63 0.87 0.39 0.02 0.00 0.00 0.01 0.06 0.16 0.01 0.00 0.02 0.01 0.01 0.01 0.01 0.01 0.00 0.02 0.04 0.00 0.00 0.00 0.00 0.01 0.02 0.13 0.20 0.11 0.07 0.02 0.16 0.50 0.55 1.05 0.92 0.85 0.68 0.60 0.45
0.05 0.09 0.06 0.19 0.61 1.04 0.85 0.22 0.01 0.00 0.01 0.03 0.02 0.07 0.02 0.01 0.02 0.05 0.06 0.03 0.03 0.03 0.02 0.02 0.04 0.02 0.01 0.01 0.01 0.01 0.04 0.11 0.21 0.13 0.11 0.07 0.36 0.68 0.94 0.83 0.51 0.50 0.42 0.32 0.19
0.25 0.32 0.04 0.22 0.93 0.92 0.31 0.05 0.02 0.02 0.03 0.03 0.02 0.03 0.02 0.01 0.01 0.03 0.03 0.06 0.02 0.03 0.07 0.08 0.11 0.03 0.01 0.00 0.01 0.02 0.01 0.10 0.24 0.28 0.32 0.26 0.38 0.38 0.46 0.39 0.12 0.01 0.02 0.05 0.04
0.40 0.36 0.21 0.46 0.54 0.33 0.10 0.03 0.04 0.02 0.04 0.05 0.04 0.02 0.01 0.01 0.02 0.03 0.03 0.03 0.00 0.03 0.10 0.20 0.27 0.16 0.11 0.05 0.02 0.02 0.00 0.02 0.06 0.10 0.07 0.05 0.15 0.22 0.11 0.05 0.01 0.00 0.00 0.00 0.00
0.64 0.51 0.65 0.78 0.25 0.08 0.05 0.08 0.12 0.03 0.02 0.05 0.05 0.04 0.02 0.01 0.01 0.02 0.02 0.00 0.00 0.01 0.06 0.14 0.13 0.09 0.08 0.04 0.01 0.01 0.01 0.02 0.08 0.15 0.03 0.00 0.02 0.08 0.06 0.00 0.00 0.00 0.00 0.00 0.00
0.90 0.56 0.12 0.29 0.12 0.04 0.07 0.06 0.03 0.05 0.07 0.06 0.11 0.06 0.05 0.04 0.02 0.02 0.03 0.01 0.00 0.01 0.02 0.07 0.04 0.03 0.03 0.05 0.05 0.04 0.03 0.04 0.10 0.08 0.06 0.02 0.00 0.01 0.00 0.00 0.00 0.00 0.00 0.00 0.00
0.77 0.40 0.21 0.02 0.00 0.04 0.13 0.17 0.05 0.02 0.07 0.07 0.13 0.07 0.10 0.08 0.02 0.01 0.04 0.02 0.01 0.00 0.01 0.02 0.04 0.03 0.02 0.01 0.01 0.01 0.01 0.01 0.03 0.04 0.06 0.02 0.01 0.00 0.00 0.00 0.00 0.01 0.01 0.02 0.02
0.39 0.17 0.39 0.42 0.11 0.09 0.10 0.04 0.07 0.15 0.08 0.02 0.03 0.08 0.13 0.12 0.04 0.01 0.02 0.02 0.02 0.01 0.01 0.01 0.02 0.06 0.07 0.03 0.17 0.17 0.00 0.00 0.00 0.00 0.01 0.01 0.00 0.00 0.01 0.03 0.01 0.02 0.03 0.05 0.03

GFSSW_prec_precacc24_123.txt.gz
Total_Precipitation_Accumulation
0.01 0.01 0.01 0.00 0.00 0.00 0.00 0.00 0.00 0.00 0.00 0.00 0.00 0.00 0.00 0.00 0.00 0.00 0.00 0.00 0.00 0.00 0.00 0.00 0.00 0.00 0.00 0.00 0.00 0.00 0.00 0.00 0.00 0.00 0.00 0.00 0.00 0.00 0.00 0.00 0.00 0.00 0.00 0.00 0.00
0.00 0.00 0.00 0.00 0.00 0.00 0.00 0.00 0.00 0.00 0.00 0.00 0.00 0.00 0.00 0.00 0.00 0.00 0.00 0.00 0.00 0.00 0.00 0.00 0.00 0.00 0.00 0.00 0.00 0.00 0.00 0.00 0.00 0.00 0.00 0.00 0.00 0.00 0.00 0.00 0.00 0.00 0.00 0.00 0.00
0.00 0.00 0.00 0.00 0.00 0.00 0.00 0.00 0.00 0.00 0.00 0.00 0.00 0.00 0.00 0.00 0.00 0.00 0.00 0.00 0.00 0.00 0.00 0.00 0.00 0.00 0.00 0.00 0.00 0.00 0.00 0.00 0.00 0.00 0.00 0.00 0.00 0.00 0.00 0.00 0.00 0.00 0.00 0.00 0.00
0.00 0.00 0.00 0.00 0.00 0.00 0.00 0.01 0.00 0.00 0.00 0.00 0.00 0.00 0.00 0.00 0.00 0.00 0.00 0.00 0.00 0.00 0.00 0.00 0.00 0.00 0.00 0.00 0.00 0.00 0.00 0.00 0.00 0.00 0.00 0.00 0.00 0.00 0.00 0.00 0.00 0.00 0.00 0.00 0.00
0.00 0.00 0.00 0.00 0.01 0.01 0.02 0.02 0.01 0.01 0.00 0.00 0.00 0.00 0.00 0.00 0.00 0.00 0.00 0.00 0.00 0.00 0.00 0.00 0.00 0.00 0.00 0.00 0.00 0.00 0.00 0.00 0.00 0.00 0.00 0.00 0.00 0.00 0.00 0.00 0.00 0.00 0.00 0.00 0.00
0.00 0.00 0.01 0.01 0.01 0.02 0.02 0.01 0.01 0.01 0.01 0.00 0.00 0.00 0.00 0.00 0.00 0.00 0.00 0.00 0.00 0.00 0.00 0.00 0.00 0.00 0.00 0.00 0.00 0.00 0.00 0.00 0.00 0.00 0.00 0.00 0.00 0.00 0.00 0.00 0.00 0.00 0.00 0.00 0.00
0.00 0.01 0.01 0.01 0.01 0.02 0.03 0.01 0.01 0.02 0.01 0.01 0.00 0.00 0.00 0.00 0.00 0.00 0.00 0.00 0.00 0.00 0.00 0.00 0.00 0.00 0.00 0.00 0.00 0.00 0.00 0.00 0.00 0.00 0.00 0.00 0.00 0.00 0.00 0.00 0.00 0.00 0.00 0.00 0.00
0.00 0.01 0.01 0.01 0.01 0.03 0.05 0.02 0.02 0.03 0.03 0.03 0.00 0.00 0.00 0.00 0.00 0.00 0.00 0.00 0.00 0.00 0.00 0.00 0.00 0.00 0.00 0.00 0.00 0.00 0.00 0.00 0.00 0.00 0.00 0.00 0.00 0.00 0.00 0.00 0.00 0.00 0.00 0.00 0.00
0.01 0.01 0.01 0.01 0.02 0.03 0.04 0.04 0.06 0.08 0.05 0.02 0.00 0.00 0.00 0.00 0.00 0.00 0.00 0.00 0.00 0.00 0.00 0.00 0.00 0.00 0.00 0.00 0.00 0.00 0.00 0.00 0.00 0.00 0.00 0.00 0.00 0.00 0.00 0.00 0.00 0.00 0.00 0.00 0.00
0.01 0.01 0.01 0.01 0.03 0.07 0.09 0.11 0.11 0.05 0.02 0.00 0.00 0.00 0.00 0.00 0.00 0.00 0.00 0.00 0.00 0.00 0.00 0.00 0.00 0.00 0.00 0.00 0.00 0.00 0.00 0.00 0.00 0.00 0.00 0.00 0.00 0.00 0.00 0.00 0.00 0.00 0.00 0.00 0.00
0.00 0.00 0.02 0.03 0.06 0.12 0.11 0.08 0.04 0.01 0.00 0.00 0.00 0.00 0.00 0.00 0.00 0.00 0.00 0.00 0.00 0.00 0.00 0.00 0.00 0.00 0.00 0.00 0.00 0.00 0.00 0.00 0.00 0.00 0.00 0.00 0.00 0.00 0.00 0.00 0.00 0.00 0.00 0.00 0.00
0.00 0.01 0.01 0.05 0.08 0.06 0.02 0.03 0.00 0.00 0.00 0.00 0.00 0.00 0.00 0.00 0.00 0.00 0.00 0.00 0.00 0.00 0.00 0.01 0.01 0.00 0.00 0.00 0.00 0.00 0.00 0.00 0.00 0.00 0.00 0.00 0.00 0.00 0.00 0.00 0.00 0.00 0.00 0.00 0.00
0.00 0.01 0.03 0.09 0.15 0.12 0.03 0.02 0.00 0.00 0.03 0.00 0.00 0.00 0.00 0.00 0.00 0.00 0.00 0.00 0.01 0.03 0.02 0.02 0.01 0.00 0.01 0.03 0.02 0.01 0.00 0.00 0.00 0.00 0.00 0.01 0.00 0.00 0.00 0.00 0.00 0.00 0.00 0.00 0.00
0.01 0.03 0.09 0.16 0.24 0.07 0.12 0.03 0.00 0.01 0.16 0.03 0.00 0.00 0.00 0.00 0.00 0.00 0.00 0.00 0.01 0.02 0.02 0.06 0.02 0.02 0.02 0.02 0.01 0.04 0.00 0.01 0.01 0.02 0.04 0.01 0.07 0.00 0.00 0.00 0.00 0.00 0.01 0.04 0.07
0.04 0.09 0.11 0.08 0.01 0.02 0.02 0.00 0.00 0.05 0.21 0.01 0.00 0.00 0.00 0.00 0.00 0.00 0.00 0.00 0.01 0.01 0.06 0.04 0.01 0.03 0.05 0.02 0.02 0.03 0.01 0.02 0.02 0.02 0.04 0.01 0.06 0.02 0.00 0.00 0.01 0.01 0.02 0.10 0.12
0.09 0.12 0.11 0.09 0.04 0.04 0.03 0.05 0.10 0.31 0.25 0.01 0.00 0.00 0.00 0.00 0.00 0.00 0.00 0.00 0.01 0.17 0.13 0.03 0.05 0.03 0.02 0.01 0.03 0.04 0.04 0.01 0.01 0.06 0.18 0.02 0.02 0.04 0.01 0.02 0.02 0.07 0.07 0.09 0.12
0.13 0.11 0.10 0.04 0.04 0.05 0.07 0.21 0.61 0.43 0.04 0.00 0.00 0.00 0.00 0.00 0.00 0.00 0.00 0.00 0.01 0.08 0.06 0.04 0.07 0.02 0.00 0.01 0.01 0.06 0.14 0.21 0.16 0.13 0.08 0.00 0.06 0.05 0.04 0.04 0.09 0.19 0.44 0.34 0.25
0.20 0.23 0.19 0.13 0.16 0.20 0.33 0.55 0.51 0.07 0.00 0.00 0.00 0.00 0.00 0.00 0.00 0.00 0.00 0.01 0.00 0.00 0.04 0.07 0.04 0.00 0.00 0.00 0.02 0.02 0.05 0.11 0.13 0.09 0.05 0.04 0.14 0.09 0.15 0.26 0.62 0.60 0.69 0.61 0.50
0.10 0.06 0.09 0.11 0.14 0.28 0.57 0.78 0.23 0.03 0.00 0.01 0.00 0.00 0.00 0.00 0.00 0.00 0.00 0.01 0.00 0.00 0.02 0.03 0.02 0.00 0.00 0.00 0.02 0.09 0.07 0.01 0.14 0.15 0.15 0.05 0.03 0.12 0.54 1.10 0.93 0.89 0.75 0.54 0.49
0.01 0.06 0.10 0.12 0.24 0.64 0.89 0.38 0.02 0.00 0.00 0.01 0.01 0.02 0.00 0.00 0.01 0.01 0.01 0.01 0.01 0.01 0.00 0.02 0.04 0.00 0.00 0.00 0.00 0.01 0.02 0.14 0.22 0.13 0.07 0.02 0.16 0.50 0.55 1.05 0.92 0.85 0.68 0.60 0.45
0.05 0.09 0.06 0.19 0.61 1.03 0.86 0.22 0.01 0.00 0.01 0.03 0.01 0.02 0.01 0.00 0.02 0.04 0.05 0.02 0.02 0.02 0.02 0.02 0.03 0.01 0.00 0.01 0.01 0.01 0.04 0.11 0.23 0.13 0.10 0.06 0.36 0.68 0.94 0.83 0.51 0.51 0.42 0.32 0.19
0.25 0.32 0.03 0.25 0.96 0.90 0.32 0.05 0.02 0.02 0.03 0.03 0.02 0.01 0.01 0.00 0.01 0.02 0.03 0.05 0.02 0.03 0.06 0.07 0.11 0.04 0.01 0.00 0.01 0.03 0.02 0.12 0.30 0.34 0.35 0.26 0.38 0.38 0.46 0.39 0.12 0.01 0.02 0.05 0.04
0.43 0.35 0.22 0.57 0.56 0.36 0.11 0.03 0.04 0.02 0.03 0.05 0.03 0.01 0.00 0.01 0.02 0.03 0.03 0.03 0.00 0.02 0.10 0.22 0.31 0.21 0.15 0.08 0.03 0.02 0.01 0.04 0.09 0.13 0.08 0.08 0.15 0.22 0.11 0.05 0.01 0.00 0.00 0.00 0.00
0.74 0.56 0.66 0.87 0.28 0.09 0.07 0.09 0.13 0.03 0.02 0.05 0.05 0.04 0.02 0.01 0.01 0.02 0.02 0.00 0.00 0.01 0.06 0.16 0.15 0.12 0.11 0.06 0.01 0.01 0.01 0.04 0.12 0.18 0.05 0.02 0.02 0.08 0.06 0.00 0.00 0.00 0.00 0.00 0.00
1.03 0.65 0.15 0.35 0.19 0.05 0.07 0.06 0.03 0.05 0.07 0.07 0.12 0.06 0.05 0.04 0.02 0.02 0.03 0.01 0.00 0.01 0.02 0.08 0.05 0.03 0.03 0.05 0.06 0.04 0.03 0.05 0.12 0.09 0.09 0.04 0.01 0.02 0.01 0.01 0.01 0.00 0.00 0.00 0.00
0.89 0.46 0.22 0.02 0.01 0.05 0.15 0.17 0.05 0.02 0.08 0.08 0.14 0.07 0.11 0.09 0.02 0.01 0.04 0.03 0.01 0.01 0.01 0.03 0.06 0.03 0.02 0.01 0.02 0.02 0.01 0.01 0.03 0.05 0.08 0.06 0.05 0.01 0.00 0.01 0.00 0.00 0.00 0.00 0.00
0.61 0.24 0.39 0.42 0.12 0.12 0.13 0.04 0.07 0.15 0.08 0.02 0.04 0.09 0.14 0.12 0.05 0.02 0.03 0.02 0.03 0.02 0.03 0.03 0.04 0.07 0.08 0.03 0.18 0.19 0.00 0.00 0.00 0.00 0.00 0.00 0.01 0.00 0.01 0.03 0.01 0.01 0.01 0.02 0.02

GFSSW_prec_precacc24_126.txt.gz
Total_Precipitation_Accumulation
0.01 0.01 0.01 0.00 0.00 0.00 0.00 0.00 0.00 0.00 0.00 0.00 0.00 0.00 0.00 0.00 0.00 0.00 0.00 0.00 0.00 0.00 0.00 0.00 0.00 0.00 0.00 0.00 0.00 0.00 0.00 0.00 0.00 0.00 0.00 0.00 0.00 0.00 0.00 0.00 0.00 0.00 0.00 0.00 0.00
0.00 0.00 0.00 0.00 0.00 0.00 0.00 0.00 0.00 0.00 0.00 0.00 0.00 0.00 0.00 0.00 0.00 0.00 0.00 0.00 0.00 0.00 0.00 0.00 0.00 0.00 0.00 0.00 0.00 0.00 0.00 0.00 0.00 0.00 0.00 0.00 0.00 0.00 0.00 0.00 0.00 0.00 0.00 0.00 0.00
0.00 0.00 0.00 0.00 0.00 0.00 0.00 0.00 0.00 0.00 0.00 0.00 0.00 0.00 0.00 0.00 0.00 0.00 0.00 0.00 0.00 0.00 0.00 0.00 0.00 0.00 0.00 0.00 0.00 0.00 0.00 0.00 0.00 0.00 0.00 0.00 0.00 0.00 0.00 0.00 0.00 0.00 0.00 0.00 0.00
0.00 0.00 0.00 0.00 0.00 0.00 0.00 0.01 0.00 0.00 0.00 0.00 0.00 0.00 0.00 0.00 0.00 0.00 0.00 0.00 0.00 0.00 0.00 0.00 0.00 0.00 0.00 0.00 0.00 0.00 0.00 0.00 0.00 0.00 0.00 0.00 0.00 0.00 0.00 0.00 0.00 0.00 0.00 0.00 0.00
0.00 0.00 0.00 0.00 0.00 0.01 0.01 0.01 0.01 0.00 0.00 0.00 0.00 0.00 0.00 0.00 0.00 0.00 0.00 0.00 0.00 0.00 0.00 0.00 0.00 0.00 0.00 0.00 0.00 0.00 0.00 0.00 0.00 0.00 0.00 0.00 0.00 0.00 0.00 0.00 0.00 0.00 0.00 0.00 0.00
0.00 0.00 0.00 0.00 0.01 0.01 0.01 0.00 0.00 0.01 0.01 0.00 0.00 0.00 0.00 0.00 0.00 0.00 0.00 0.00 0.00 0.00 0.00 0.00 0.00 0.00 0.00 0.00 0.00 0.00 0.00 0.00 0.00 0.00 0.00 0.00 0.00 0.00 0.00 0.00 0.00 0.00 0.00 0.00 0.00
0.00 0.00 0.00 0.00 0.01 0.01 0.01 0.00 0.00 0.01 0.01 0.01 0.00 0.00 0.00 0.00 0.00 0.00 0.00 0.00 0.00 0.00 0.00 0.00 0.00 0.00 0.00 0.00 0.00 0.00 0.00 0.00 0.00 0.00 0.00 0.00 0.00 0.00 0.00 0.00 0.00 0.00 0.00 0.00 0.00
0.00 0.00 0.00 0.00 0.00 0.01 0.02 0.01 0.02 0.03 0.02 0.02 0.00 0.00 0.00 0.00 0.00 0.00 0.00 0.00 0.00 0.00 0.00 0.00 0.00 0.00 0.00 0.00 0.00 0.00 0.00 0.00 0.00 0.00 0.00 0.00 0.00 0.00 0.00 0.00 0.00 0.00 0.00 0.00 0.00
0.00 0.00 0.00 0.00 0.01 0.02 0.03 0.04 0.06 0.07 0.05 0.02 0.00 0.00 0.00 0.00 0.00 0.00 0.00 0.00 0.00 0.00 0.00 0.00 0.00 0.00 0.00 0.00 0.00 0.00 0.00 0.00 0.00 0.00 0.00 0.00 0.00 0.00 0.00 0.00 0.00 0.00 0.00 0.00 0.00
0.01 0.00 0.00 0.00 0.01 0.03 0.07 0.09 0.10 0.05 0.02 0.00 0.00 0.00 0.00 0.00 0.00 0.00 0.00 0.00 0.00 0.00 0.00 0.00 0.00 0.00 0.00 0.00 0.00 0.00 0.00 0.00 0.00 0.00 0.00 0.00 0.00 0.00 0.00 0.00 0.00 0.00 0.00 0.00 0.00
0.00 0.00 0.00 0.00 0.02 0.09 0.09 0.05 0.03 0.00 0.00 0.00 0.00 0.00 0.00 0.00 0.00 0.00 0.00 0.00 0.00 0.00 0.00 0.00 0.00 0.00 0.00 0.00 0.00 0.00 0.00 0.00 0.00 0.00 0.00 0.00 0.00 0.00 0.00 0.00 0.00 0.00 0.00 0.00 0.00
0.00 0.00 0.00 0.01 0.05 0.05 0.01 0.01 0.00 0.00 0.00 0.00 0.00 0.00 0.00 0.00 0.00 0.00 0.00 0.00 0.00 0.00 0.00 0.00 0.01 0.00 0.00 0.00 0.00 0.00 0.00 0.00 0.00 0.00 0.00 0.00 0.00 0.00 0.00 0.00 0.00 0.00 0.00 0.00 0.00
0.00 0.00 0.00 0.02 0.08 0.09 0.01 0.01 0.00 0.00 0.02 0.00 0.00 0.00 0.00 0.00 0.00 0.00 0.00 0.00 0.00 0.00 0.00 0.00 0.01 0.00 0.01 0.03 0.02 0.01 0.00 0.00 0.00 0.00 0.00 0.01 0.00 0.00 0.00 0.00 0.00 0.00 0.00 0.00 0.00
0.01 0.00 0.01 0.09 0.21 0.05 0.08 0.01 0.00 0.01 0.08 0.01 0.00 0.00 0.00 0.00 0.00 0.00 0.00 0.00 0.00 0.00 0.00 0.00 0.00 0.01 0.02 0.02 0.01 0.04 0.00 0.01 0.01 0.02 0.04 0.01 0.07 0.00 0.00 0.00 0.00 0.00 0.01 0.04 0.07
0.00 0.01 0.03 0.05 0.01 0.02 0.01 0.00 0.00 0.04 0.11 0.00 0.00 0.00 0.00 0.00 0.00 0.00 0.00 0.00 0.00 0.00 0.00 0.00 0.00 0.00 0.02 0.02 0.02 0.03 0.01 0.02 0.02 0.02 0.04 0.01 0.06 0.02 0.00 0.00 0.01 0.01 0.03 0.10 0.12
0.01 0.03 0.05 0.09 0.03 0.00 0.00 0.00 0.05 0.14 0.09 0.00 0.00 0.00 0.00 0.00 0.00 0.00 0.00 0.00 0.00 0.06 0.06 0.02 0.04 0.01 0.00 0.00 0.03 0.04 0.04 0.01 0.01 0.06 0.18 0.02 0.02 0.04 0.01 0.02 0.02 0.07 0.07 0.09 0.12
0.07 0.06 0.05 0.01 0.01 0.00 0.01 0.11 0.40 0.27 0.02 0.00 0.00 0.00 0.00 0.00 0.00 0.00 0.00 0.00 0.00 0.03 0.05 0.04 0.07 0.02 0.00 0.01 0.01 0.06 0.14 0.20 0.16 0.13 0.08 0.00 0.06 0.05 0.04 0.04 0.09 0.19 0.44 0.34 0.25
0.14 0.16 0.09 0.01 0.01 0.04 0.20 0.43 0.34 0.04 0.00 0.00 0.00 0.00 0.00 0.00 0.00 0.00 0.00 0.01 0.00 0.00 0.04 0.07 0.04 0.00 0.00 0.00 0.02 0.02 0.05 0.11 0.12 0.09 0.05 0.04 0.14 0.09 0.15 0.26 0.62 0.60 0.69 0.61 0.50
0.11 0.06 0.07 0.08 0.10 0.23 0.55 0.70 0.19 0.03 0.00 0.01 0.00 0.00 0.00 0.00 0.00 0.00 0.00 0.01 0.00 0.00 0.02 0.02 0.02 0.00 0.00 0.00 0.02 0.09 0.07 0.01 0.14 0.15 0.15 0.05 0.03 0.12 0.54 1.10 0.93 0.89 0.75 0.54 0.49
0.19 0.09 0.11 0.12 0.24 0.64 0.95 0.38 0.02 0.00 0.00 0.01 0.01 0.00 0.00 0.00 0.01 0.01 0.01 0.01 0.01 0.01 0.00 0.01 0.04 0.00 0.00 0.00 0.00 0.01 0.02 0.14 0.24 0.14 0.08 0.02 0.16 0.49 0.55 1.05 0.92 0.85 0.68 0.60 0.46
0.28 0.19 0.07 0.18 0.59 1.04 0.91 0.22 0.01 0.00 0.01 0.03 0.01 0.02 0.00 0.00 0.01 0.04 0.05 0.02 0.02 0.02 0.02 0.02 0.03 0.01 0.00 0.01 0.01 0.01 0.04 0.11 0.23 0.14 0.11 0.07 0.36 0.68 0.94 0.83 0.51 0.51 0.43 0.32 0.19
0.45 0.40 0.04 0.23 0.93 0.89 0.34 0.06 0.02 0.02 0.03 0.03 0.01 0.00 0.00 0.00 0.01 0.01 0.02 0.04 0.01 0.02 0.05 0.07 0.11 0.04 0.01 0.00 0.01 0.03 0.02 0.14 0.32 0.36 0.37 0.31 0.40 0.38 0.46 0.39 0.12 0.01 0.02 0.05 0.04
0.60 0.37 0.24 0.58 0.53 0.35 0.11 0.03 0.04 0.02 0.03 0.05 0.03 0.00 0.00 0.00 0.02 0.03 0.02 0.02 0.00 0.02 0.09 0.23 0.33 0.23 0.16 0.10 0.04 0.03 0.01 0.06 0.14 0.19 0.15 0.16 0.16 0.22 0.11 0.05 0.01 0.00 0.00 0.00 0.00
0.88 0.66 0.74 0.93 0.29 0.09 0.06 0.09 0.13 0.03 0.02 0.05 0.05 0.03 0.01 0.01 0.01 0.02 0.02 0.00 0.00 0.01 0.06 0.18 0.16 0.14 0.12 0.08 0.04 0.05 0.04 0.09 0.18 0.24 0.08 0.03 0.03 0.08 0.06 0.00 0.00 0.00 0.00 0.00 0.00
1.27 0.79 0.21 0.46 0.23 0.05 0.08 0.06 0.03 0.05 0.08 0.07 0.12 0.05 0.04 0.04 0.02 0.02 0.03 0.01 0.00 0.01 0.02 0.09 0.05 0.04 0.03 0.06 0.07 0.05 0.04 0.06 0.14 0.12 0.13 0.04 0.01 0.02 0.01 0.01 0.02 0.01 0.01 0.00 0.00
1.09 0.55 0.25 0.03 0.01 0.05 0.16 0.18 0.04 0.02 0.08 0.09 0.14 0.07 0.11 0.09 0.02 0.01 0.05 0.05 0.03 0.02 0.03 0.05 0.07 0.04 0.02 0.01 0.03 0.03 0.01 0.01 0.04 0.05 0.08 0.06 0.05 0.01 0.00 0.02 0.02 0.02 0.01 0.00 0.00
0.78 0.26 0.40 0.43 0.13 0.15 0.15 0.04 0.07 0.16 0.09 0.03 0.05 0.13 0.17 0.14 0.09 0.06 0.07 0.05 0.05 0.04 0.06 0.05 0.06 0.10 0.09 0.03 0.21 0.22 0.00 0.00 0.00 0.00 0.00 0.00 0.00 0.00 0.00 0.02 0.01 0.01 0.00 0.00 0.01

GFSSW_prec_precacc24_129.txt.gz
Total_Precipitation_Accumulation
0.01 0.01 0.01 0.00 0.00 0.00 0.00 0.00 0.00 0.00 0.00 0.00 0.00 0.00 0.00 0.00 0.00 0.00 0.00 0.00 0.00 0.00 0.00 0.00 0.00 0.00 0.00 0.00 0.00 0.00 0.00 0.00 0.00 0.00 0.00 0.00 0.00 0.00 0.00 0.00 0.00 0.00 0.00 0.00 0.00
0.00 0.00 0.00 0.00 0.00 0.00 0.00 0.00 0.00 0.00 0.00 0.00 0.00 0.00 0.00 0.00 0.00 0.00 0.00 0.00 0.00 0.00 0.00 0.00 0.00 0.00 0.00 0.00 0.00 0.00 0.00 0.00 0.00 0.00 0.00 0.00 0.00 0.00 0.00 0.00 0.00 0.00 0.00 0.00 0.00
0.00 0.00 0.00 0.00 0.00 0.00 0.00 0.00 0.00 0.00 0.00 0.00 0.00 0.00 0.00 0.00 0.00 0.00 0.00 0.00 0.00 0.00 0.00 0.00 0.00 0.00 0.00 0.00 0.00 0.00 0.00 0.00 0.00 0.00 0.00 0.00 0.00 0.00 0.00 0.00 0.00 0.00 0.00 0.00 0.00
0.00 0.00 0.00 0.00 0.00 0.00 0.00 0.00 0.00 0.00 0.00 0.00 0.00 0.00 0.00 0.00 0.00 0.00 0.00 0.00 0.00 0.00 0.00 0.00 0.00 0.00 0.00 0.00 0.00 0.00 0.00 0.00 0.00 0.00 0.00 0.00 0.00 0.00 0.00 0.00 0.00 0.00 0.00 0.00 0.00
0.00 0.00 0.00 0.00 0.00 0.00 0.01 0.01 0.00 0.00 0.00 0.00 0.00 0.00 0.00 0.00 0.00 0.00 0.00 0.00 0.00 0.00 0.00 0.00 0.00 0.00 0.00 0.00 0.00 0.00 0.00 0.00 0.00 0.00 0.00 0.00 0.00 0.00 0.00 0.00 0.00 0.00 0.00 0.00 0.00
0.00 0.00 0.00 0.00 0.00 0.00 0.00 0.00 0.00 0.01 0.01 0.00 0.00 0.00 0.00 0.00 0.00 0.00 0.00 0.00 0.00 0.00 0.00 0.00 0.00 0.00 0.00 0.00 0.00 0.00 0.00 0.00 0.00 0.00 0.00 0.00 0.00 0.00 0.00 0.00 0.00 0.00 0.00 0.00 0.00
0.00 0.00 0.00 0.00 0.00 0.00 0.01 0.00 0.00 0.01 0.01 0.01 0.00 0.00 0.00 0.00 0.00 0.00 0.00 0.00 0.00 0.00 0.00 0.00 0.00 0.00 0.00 0.00 0.00 0.00 0.00 0.00 0.00 0.00 0.00 0.00 0.00 0.00 0.00 0.00 0.00 0.00 0.00 0.00 0.00
0.01 0.00 0.00 0.00 0.00 0.00 0.01 0.00 0.01 0.03 0.02 0.02 0.00 0.00 0.00 0.00 0.00 0.00 0.00 0.00 0.00 0.00 0.00 0.00 0.00 0.00 0.00 0.00 0.00 0.00 0.00 0.00 0.00 0.00 0.00 0.00 0.00 0.00 0.00 0.00 0.00 0.00 0.00 0.00 0.00
0.02 0.01 0.00 0.00 0.00 0.00 0.01 0.02 0.05 0.07 0.05 0.02 0.00 0.00 0.00 0.00 0.00 0.00 0.00 0.00 0.00 0.00 0.00 0.00 0.00 0.00 0.00 0.00 0.00 0.00 0.00 0.00 0.00 0.00 0.00 0.00 0.00 0.00 0.00 0.00 0.00 0.00 0.00 0.00 0.00
0.01 0.01 0.00 0.00 0.00 0.01 0.04 0.07 0.08 0.04 0.02 0.00 0.00 0.00 0.00 0.00 0.00 0.00 0.00 0.00 0.00 0.00 0.00 0.00 0.00 0.00 0.00 0.00 0.00 0.00 0.00 0.00 0.00 0.00 0.00 0.00 0.00 0.00 0.00 0.00 0.00 0.00 0.00 0.00 0.00
0.01 0.00 0.00 0.00 0.01 0.05 0.06 0.03 0.02 0.00 0.00 0.00 0.00 0.00 0.00 0.00 0.00 0.00 0.00 0.00 0.00 0.00 0.00 0.00 0.00 0.00 0.00 0.00 0.00 0.00 0.00 0.00 0.00 0.00 0.00 0.00 0.00 0.00 0.00 0.00 0.00 0.00 0.00 0.00 0.00
0.00 0.00 0.00 0.00 0.02 0.04 0.01 0.00 0.00 0.00 0.00 0.00 0.00 0.00 0.00 0.00 0.00 0.00 0.00 0.00 0.00 0.00 0.00 0.00 0.00 0.00 0.00 0.00 0.00 0.00 0.00 0.00 0.00 0.00 0.00 0.00 0.00 0.00 0.00 0.00 0.00 0.00 0.00 0.00 0.00
0.01 0.00 0.00 0.00 0.05 0.06 0.01 0.01 0.00 0.00 0.00 0.00 0.00 0.00 0.00 0.00 0.00 0.00 0.00 0.00 0.00 0.00 0.00 0.00 0.00 0.00 0.00 0.00 0.00 0.00 0.00 0.00 0.00 0.00 0.00 0.01 0.00 0.00 0.00 0.00 0.00 0.00 0.00 0.00 0.00
0.01 0.00 0.00 0.05 0.16 0.03 0.06 0.01 0.00 0.00 0.00 0.00 0.00 0.00 0.00 0.00 0.00 0.00 0.00 0.00 0.00 0.00 0.00 0.00 0.00 0.00 0.00 0.00 0.00 0.01 0.00 0.00 0.01 0.02 0.04 0.01 0.07 0.00 0.00 0.00 0.00 0.00 0.01 0.04 0.07
0.00 0.00 0.01 0.03 0.01 0.01 0.01 0.00 0.00 0.00 0.02 0.00 0.00 0.00 0.00 0.00 0.00 0.00 0.00 0.00 0.00 0.00 0.00 0.00 0.00 0.00 0.00 0.00 0.00 0.01 0.00 0.01 0.02 0.02 0.04 0.01 0.06 0.02 0.00 0.00 0.01 0.01 0.03 0.10 0.12
0.00 0.00 0.02 0.07 0.05 0.00 0.00 0.00 0.04 0.06 0.03 0.00 0.00 0.00 0.00 0.00 0.00 0.00 0.00 0.00 0.00 0.00 0.00 0.00 0.00 0.00 0.00 0.00 0.00 0.02 0.02 0.01 0.01 0.06 0.18 0.02 0.02 0.04 0.01 0.02 0.02 0.07 0.07 0.09 0.12
0.04 0.03 0.04 0.01 0.00 0.01 0.03 0.11 0.27 0.12 0.00 0.00 0.00 0.00 0.00 0.00 0.00 0.00 0.00 0.00 0.00 0.00 0.00 0.00 0.00 0.00 0.00 0.00 0.00 0.03 0.10 0.13 0.08 0.10 0.07 0.00 0.06 0.05 0.04 0.04 0.09 0.19 0.44 0.34 0.25
0.13 0.14 0.07 0.01 0.00 0.03 0.20 0.34 0.22 0.02 0.00 0.00 0.00 0.00 0.00 0.00 0.00 0.00 0.00 0.00 0.00 0.00 0.01 0.02 0.02 0.00 0.00 0.00 0.01 0.01 0.04 0.07 0.09 0.07 0.03 0.03 0.14 0.07 0.15 0.26 0.62 0.60 0.69 0.61 0.50
0.14 0.09 0.05 0.04 0.05 0.21 0.48 0.62 0.13 0.00 0.00 0.01 0.00 0.00 0.00 0.00 0.00 0.00 0.00 0.00 0.00 0.00 0.01 0.02 0.02 0.00 0.00 0.00 0.02 0.07 0.07 0.01 0.13 0.14 0.15 0.04 0.02 0.09 0.54 1.10 0.93 0.89 0.75 0.54 0.49
0.52 0.19 0.12 0.11 0.22 0.64 0.96 0.41 0.03 0.00 0.00 0.01 0.01 0.00 0.00 0.00 0.01 0.01 0.01 0.00 0.00 0.01 0.00 0.01 0.02 0.00 0.00 0.00 0.00 0.00 0.02 0.13 0.22 0.13 0.07 0.02 0.16 0.45 0.53 1.04 0.92 0.85 0.68 0.60 0.46
1.02 0.80 0.28 0.20 0.56 1.03 1.00 0.25 0.01 0.00 0.01 0.03 0.01 0.01 0.00 0.00 0.01 0.03 0.05 0.02 0.02 0.02 0.02 0.02 0.03 0.01 0.00 0.00 0.00 0.01 0.03 0.08 0.21 0.12 0.09 0.06 0.33 0.64 0.92 0.83 0.51 0.51 0.43 0.32 0.19
1.30 0.94 0.25 0.32 0.93 0.93 0.39 0.06 0.02 0.02 0.03 0.03 0.01 0.00 0.00 0.00 0.00 0.01 0.02 0.04 0.01 0.02 0.05 0.07 0.11 0.04 0.01 0.00 0.01 0.03 0.02 0.13 0.32 0.35 0.36 0.31 0.37 0.36 0.46 0.39 0.12 0.01 0.02 0.05 0.04
1.40 0.83 0.40 0.67 0.62 0.37 0.11 0.03 0.04 0.02 0.03 0.04 0.02 0.00 0.00 0.00 0.02 0.01 0.02 0.01 0.00 0.02 0.09 0.24 0.33 0.23 0.16 0.11 0.05 0.03 0.01 0.06 0.15 0.23 0.17 0.21 0.16 0.21 0.11 0.05 0.01 0.00 0.00 0.00 0.00
1.56 1.13 1.08 1.11 0.36 0.08 0.05 0.08 0.12 0.03 0.03 0.05 0.04 0.03 0.01 0.00 0.01 0.02 0.02 0.01 0.00 0.01 0.06 0.18 0.17 0.14 0.12 0.09 0.08 0.09 0.06 0.11 0.21 0.31 0.14 0.06 0.04 0.08 0.06 0.01 0.00 0.00 0.00 0.00 0.00
1.84 1.16 0.49 0.71 0.31 0.06 0.07 0.05 0.02 0.05 0.08 0.09 0.13 0.05 0.03 0.04 0.02 0.02 0.03 0.01 0.00 0.01 0.02 0.10 0.06 0.04 0.03 0.06 0.09 0.08 0.06 0.07 0.17 0.16 0.20 0.07 0.03 0.02 0.01 0.02 0.02 0.01 0.01 0.01 0.00
1.52 0.78 0.42 0.06 0.01 0.05 0.15 0.17 0.03 0.01 0.08 0.09 0.13 0.06 0.10 0.08 0.02 0.02 0.05 0.05 0.03 0.02 0.04 0.07 0.09 0.04 0.03 0.01 0.03 0.03 0.01 0.01 0.04 0.05 0.09 0.06 0.06 0.01 0.00 0.02 0.02 0.02 0.01 0.00 0.00
1.21 0.46 0.49 0.48 0.14 0.15 0.14 0.04 0.06 0.15 0.09 0.03 0.05 0.15 0.18 0.14 0.11 0.07 0.09 0.07 0.08 0.07 0.10 0.09 0.09 0.12 0.11 0.03 0.22 0.24 0.00 0.00 0.00 0.00 0.00 0.00 0.00 0.00 0.00 0.00 0.01 0.00 0.00 0.00 0.00

GFSSW_prec_precacc24_132.txt.gz
Total_Precipitation_Accumulation
0.01 0.01 0.01 0.00 0.00 0.00 0.00 0.00 0.00 0.00 0.00 0.00 0.00 0.00 0.00 0.00 0.00 0.00 0.00 0.00 0.00 0.00 0.00 0.00 0.00 0.00 0.00 0.00 0.00 0.00 0.00 0.00 0.00 0.00 0.00 0.00 0.00 0.00 0.00 0.00 0.00 0.00 0.00 0.00 0.00
0.00 0.00 0.00 0.00 0.00 0.00 0.00 0.00 0.00 0.00 0.00 0.00 0.00 0.00 0.00 0.00 0.00 0.00 0.00 0.00 0.00 0.00 0.00 0.00 0.00 0.00 0.00 0.00 0.00 0.00 0.00 0.00 0.00 0.00 0.00 0.00 0.00 0.00 0.00 0.00 0.00 0.00 0.00 0.00 0.00
0.00 0.00 0.00 0.00 0.00 0.00 0.00 0.00 0.00 0.00 0.00 0.00 0.00 0.00 0.00 0.00 0.00 0.00 0.00 0.00 0.00 0.00 0.00 0.00 0.00 0.00 0.00 0.00 0.00 0.00 0.00 0.00 0.00 0.00 0.00 0.00 0.00 0.00 0.00 0.00 0.00 0.00 0.00 0.00 0.00
0.00 0.00 0.00 0.00 0.00 0.00 0.00 0.00 0.00 0.00 0.00 0.00 0.00 0.00 0.00 0.00 0.00 0.00 0.00 0.00 0.00 0.00 0.00 0.00 0.00 0.00 0.00 0.00 0.00 0.00 0.00 0.00 0.00 0.00 0.00 0.00 0.00 0.00 0.00 0.00 0.00 0.00 0.00 0.00 0.00
0.01 0.01 0.01 0.00 0.00 0.00 0.00 0.00 0.00 0.00 0.00 0.00 0.00 0.00 0.00 0.00 0.00 0.00 0.00 0.00 0.00 0.00 0.00 0.00 0.00 0.00 0.00 0.00 0.00 0.00 0.00 0.00 0.00 0.00 0.00 0.00 0.00 0.00 0.00 0.00 0.00 0.00 0.00 0.00 0.00
0.01 0.01 0.00 0.00 0.00 0.00 0.00 0.00 0.00 0.00 0.00 0.00 0.00 0.00 0.00 0.00 0.00 0.00 0.00 0.00 0.00 0.00 0.00 0.00 0.00 0.00 0.00 0.00 0.00 0.00 0.00 0.00 0.00 0.00 0.00 0.00 0.00 0.00 0.00 0.00 0.00 0.00 0.00 0.00 0.00
0.02 0.01 0.00 0.00 0.00 0.00 0.00 0.00 0.00 0.01 0.01 0.01 0.00 0.00 0.00 0.00 0.00 0.00 0.00 0.00 0.00 0.00 0.00 0.00 0.00 0.00 0.00 0.00 0.00 0.00 0.00 0.00 0.00 0.00 0.00 0.00 0.00 0.00 0.00 0.00 0.00 0.00 0.00 0.00 0.00
0.08 0.03 0.00 0.00 0.00 0.00 0.00 0.00 0.00 0.01 0.02 0.02 0.00 0.00 0.00 0.00 0.00 0.00 0.00 0.00 0.00 0.00 0.00 0.00 0.00 0.00 0.00 0.00 0.00 0.00 0.00 0.00 0.00 0.00 0.00 0.00 0.00 0.00 0.00 0.00 0.00 0.00 0.00 0.00 0.00
0.10 0.05 0.02 0.01 0.00 0.00 0.01 0.02 0.03 0.05 0.04 0.02 0.00 0.00 0.00 0.00 0.00 0.00 0.00 0.00 0.00 0.00 0.00 0.00 0.00 0.00 0.00 0.00 0.00 0.00 0.00 0.00 0.00 0.00 0.00 0.00 0.00 0.00 0.00 0.00 0.00 0.00 0.00 0.00 0.00
0.04 0.02 0.01 0.00 0.00 0.00 0.02 0.03 0.04 0.03 0.01 0.00 0.00 0.00 0.00 0.00 0.00 0.00 0.00 0.00 0.00 0.00 0.00 0.00 0.00 0.00 0.00 0.00 0.00 0.00 0.00 0.00 0.00 0.00 0.00 0.00 0.00 0.00 0.00 0.00 0.00 0.00 0.00 0.00 0.00
0.02 0.01 0.01 0.00 0.01 0.05 0.03 0.01 0.00 0.00 0.00 0.00 0.00 0.00 0.00 0.00 0.00 0.00 0.00 0.00 0.00 0.00 0.00 0.00 0.00 0.00 0.00 0.00 0.00 0.00 0.00 0.00 0.00 0.00 0.00 0.00 0.00 0.00 0.00 0.00 0.00 0.00 0.00 0.00 0.00
0.01 0.00 0.00 0.00 0.02 0.03 0.01 0.00 0.00 0.00 0.00 0.00 0.00 0.00 0.00 0.00 0.00 0.00 0.00 0.00 0.00 0.00 0.00 0.00 0.00 0.00 0.00 0.00 0.00 0.00 0.00 0.00 0.00 0.00 0.00 0.00 0.00 0.00 0.00 0.00 0.00 0.00 0.00 0.00 0.00
0.03 0.01 0.00 0.00 0.04 0.05 0.01 0.00 0.00 0.00 0.00 0.00 0.00 0.00 0.00 0.00 0.00 0.00 0.00 0.00 0.00 0.00 0.00 0.00 0.00 0.00 0.00 0.00 0.00 0.00 0.00 0.00 0.00 0.00 0.00 0.00 0.00 0.00 0.00 0.00 0.00 0.00 0.00 0.00 0.00
0.04 0.02 0.01 0.05 0.12 0.02 0.02 0.00 0.00 0.00 0.01 0.00 0.00 0.00 0.00 0.00 0.00 0.00 0.00 0.00 0.00 0.00 0.00 0.00 0.00 0.00 0.00 0.00 0.00 0.00 0.00 0.00 0.00 0.00 0.00 0.00 0.04 0.00 0.00 0.00 0.00 0.00 0.01 0.04 0.07
0.07 0.02 0.02 0.03 0.01 0.01 0.00 0.00 0.00 0.00 0.10 0.00 0.00 0.00 0.00 0.00 0.00 0.00 0.00 0.00 0.00 0.00 0.00 0.00 0.00 0.00 0.00 0.00 0.00 0.00 0.00 0.00 0.00 0.00 0.02 0.00 0.04 0.01 0.00 0.00 0.01 0.01 0.03 0.10 0.12
0.07 0.04 0.03 0.06 0.04 0.00 0.00 0.00 0.03 0.08 0.08 0.00 0.00 0.00 0.00 0.00 0.00 0.00 0.00 0.00 0.00 0.00 0.00 0.00 0.00 0.00 0.00 0.00 0.00 0.00 0.00 0.00 0.00 0.03 0.07 0.00 0.01 0.01 0.01 0.02 0.02 0.07 0.07 0.09 0.12
0.12 0.06 0.03 0.01 0.01 0.02 0.05 0.11 0.22 0.13 0.01 0.00 0.00 0.00 0.00 0.00 0.00 0.00 0.00 0.00 0.00 0.00 0.00 0.00 0.00 0.00 0.00 0.00 0.00 0.00 0.00 0.05 0.03 0.04 0.02 0.00 0.02 0.02 0.03 0.04 0.09 0.18 0.43 0.34 0.25
0.26 0.24 0.10 0.01 0.00 0.06 0.26 0.34 0.19 0.03 0.00 0.00 0.00 0.00 0.00 0.00 0.00 0.00 0.00 0.00 0.00 0.00 0.00 0.00 0.00 0.00 0.00 0.00 0.00 0.00 0.00 0.03 0.03 0.02 0.02 0.01 0.03 0.03 0.11 0.25 0.61 0.51 0.63 0.61 0.50
0.43 0.39 0.16 0.05 0.02 0.20 0.49 0.61 0.09 0.00 0.00 0.00 0.00 0.00 0.00 0.00 0.00 0.00 0.00 0.00 0.00 0.00 0.00 0.00 0.00 0.00 0.00 0.00 0.00 0.00 0.01 0.01 0.07 0.06 0.08 0.01 0.00 0.05 0.50 1.09 0.91 0.83 0.70 0.54 0.49
0.82 0.65 0.39 0.09 0.17 0.55 0.94 0.47 0.02 0.00 0.00 0.01 0.01 0.00 0.00 0.00 0.00 0.00 0.01 0.00 0.00 0.00 0.00 0.00 0.00 0.00 0.00 0.00 0.00 0.00 0.00 0.05 0.15 0.08 0.04 0.01 0.10 0.35 0.51 1.03 0.91 0.84 0.67 0.60 0.46
1.29 1.37 0.64 0.18 0.53 0.97 1.12 0.34 0.01 0.00 0.01 0.03 0.01 0.01 0.00 0.00 0.00 0.02 0.02 0.02 0.01 0.01 0.01 0.01 0.02 0.00 0.00 0.00 0.00 0.00 0.01 0.02 0.11 0.08 0.06 0.04 0.17 0.49 0.67 0.67 0.48 0.51 0.43 0.32 0.19
1.55 1.32 0.44 0.36 1.08 1.10 0.48 0.07 0.01 0.02 0.03 0.03 0.01 0.00 0.00 0.00 0.00 0.00 0.00 0.03 0.01 0.02 0.05 0.07 0.11 0.03 0.00 0.00 0.01 0.03 0.02 0.08 0.19 0.20 0.31 0.27 0.26 0.20 0.19 0.31 0.11 0.01 0.02 0.05 0.04
1.51 1.11 0.52 0.78 1.10 0.61 0.12 0.02 0.04 0.02 0.04 0.06 0.02 0.00 0.00 0.00 0.01 0.00 0.02 0.02 0.00 0.02 0.09 0.24 0.33 0.22 0.15 0.11 0.05 0.03 0.01 0.06 0.14 0.23 0.17 0.20 0.09 0.09 0.09 0.05 0.01 0.00 0.00 0.00 0.00
1.51 1.28 1.33 1.45 0.73 0.17 0.05 0.08 0.12 0.03 0.03 0.06 0.04 0.03 0.01 0.00 0.01 0.01 0.03 0.02 0.00 0.01 0.06 0.19 0.17 0.14 0.11 0.08 0.09 0.11 0.07 0.11 0.23 0.35 0.17 0.08 0.03 0.04 0.06 0.02 0.00 0.00 0.00 0.00 0.00
1.84 1.25 0.75 1.17 0.69 0.14 0.05 0.04 0.02 0.05 0.08 0.10 0.16 0.04 0.02 0.03 0.01 0.01 0.03 0.02 0.01 0.01 0.02 0.10 0.06 0.04 0.03 0.06 0.10 0.10 0.08 0.08 0.18 0.18 0.24 0.08 0.05 0.01 0.01 0.04 0.03 0.02 0.01 0.01 0.00
1.60 0.82 0.53 0.26 0.15 0.08 0.14 0.16 0.03 0.01 0.08 0.09 0.13 0.05 0.09 0.08 0.03 0.01 0.05 0.07 0.04 0.02 0.04 0.07 0.09 0.05 0.03 0.01 0.03 0.07 0.03 0.01 0.04 0.05 0.09 0.06 0.06 0.01 0.00 0.02 0.02 0.02 0.01 0.00 0.00
1.27 0.51 0.53 0.58 0.18 0.24 0.17 0.04 0.05 0.14 0.08 0.03 0.04 0.14 0.17 0.13 0.12 0.08 0.11 0.09 0.09 0.08 0.11 0.11 0.09 0.13 0.13 0.04 0.23 0.26 0.01 0.00 0.00 0.00 0.00 0.00 0.00 0.00 0.00 0.00 0.00 0.01 0.02 0.01 0.00

GFSSW_prec_precacc24_138.txt.gz
Total_Precipitation_Accumulation
0.00 0.00 0.00 0.00 0.00 0.00 0.00 0.00 0.00 0.00 0.00 0.00 0.00 0.00 0.00 0.00 0.00 0.00 0.00 0.00 0.00 0.00 0.00 0.00 0.00 0.00 0.00 0.00 0.00 0.00 0.00 0.00 0.00 0.00 0.00 0.00 0.00 0.00 0.00 0.00 0.00 0.00 0.00 0.00 0.00
0.00 0.00 0.00 0.00 0.00 0.00 0.00 0.00 0.00 0.00 0.00 0.00 0.00 0.00 0.00 0.00 0.00 0.00 0.00 0.00 0.00 0.00 0.00 0.00 0.00 0.00 0.00 0.00 0.00 0.00 0.00 0.00 0.00 0.00 0.00 0.00 0.00 0.00 0.00 0.00 0.00 0.00 0.00 0.00 0.00
0.00 0.00 0.00 0.00 0.00 0.00 0.00 0.00 0.00 0.00 0.00 0.00 0.00 0.00 0.00 0.00 0.00 0.00 0.00 0.00 0.00 0.00 0.00 0.00 0.00 0.00 0.00 0.00 0.00 0.00 0.00 0.00 0.00 0.00 0.00 0.00 0.00 0.00 0.00 0.00 0.00 0.00 0.00 0.00 0.00
0.00 0.00 0.00 0.00 0.00 0.00 0.00 0.00 0.00 0.00 0.00 0.00 0.00 0.00 0.00 0.00 0.00 0.00 0.00 0.00 0.00 0.00 0.00 0.00 0.00 0.00 0.00 0.00 0.00 0.00 0.00 0.00 0.00 0.00 0.00 0.00 0.00 0.00 0.00 0.00 0.00 0.00 0.00 0.00 0.00
0.01 0.01 0.01 0.00 0.00 0.00 0.00 0.00 0.00 0.00 0.00 0.00 0.00 0.00 0.00 0.00 0.00 0.00 0.00 0.00 0.00 0.00 0.00 0.00 0.00 0.00 0.00 0.00 0.00 0.00 0.00 0.00 0.00 0.00 0.00 0.00 0.00 0.00 0.00 0.00 0.00 0.00 0.00 0.00 0.00
0.11 0.11 0.09 0.06 0.03 0.01 0.00 0.00 0.00 0.00 0.00 0.00 0.00 0.00 0.00 0.00 0.00 0.00 0.00 0.00 0.00 0.00 0.00 0.00 0.00 0.00 0.00 0.00 0.00 0.00 0.00 0.00 0.00 0.00 0.00 0.00 0.00 0.00 0.00 0.00 0.00 0.00 0.00 0.00 0.00
0.36 0.30 0.21 0.12 0.05 0.01 0.00 0.00 0.00 0.00 0.00 0.01 0.00 0.00 0.00 0.00 0.00 0.00 0.00 0.00 0.00 0.00 0.00 0.00 0.00 0.00 0.00 0.00 0.00 0.00 0.00 0.00 0.00 0.00 0.00 0.00 0.00 0.00 0.00 0.00 0.00 0.00 0.00 0.00 0.00
0.52 0.34 0.20 0.11 0.06 0.02 0.01 0.00 0.00 0.00 0.00 0.02 0.00 0.00 0.00 0.00 0.00 0.00 0.00 0.00 0.00 0.00 0.00 0.00 0.00 0.00 0.00 0.00 0.00 0.00 0.00 0.00 0.00 0.00 0.00 0.00 0.00 0.00 0.00 0.00 0.00 0.00 0.00 0.00 0.00
0.33 0.25 0.17 0.09 0.04 0.01 0.01 0.01 0.00 0.01 0.02 0.01 0.00 0.00 0.00 0.00 0.00 0.00 0.00 0.00 0.00 0.00 0.00 0.00 0.00 0.00 0.00 0.00 0.00 0.00 0.00 0.00 0.00 0.00 0.00 0.00 0.00 0.00 0.00 0.00 0.00 0.00 0.00 0.00 0.00
0.22 0.18 0.14 0.09 0.06 0.03 0.02 0.01 0.01 0.01 0.00 0.00 0.00 0.00 0.00 0.00 0.00 0.00 0.00 0.00 0.00 0.00 0.00 0.00 0.00 0.00 0.00 0.00 0.00 0.00 0.00 0.00 0.00 0.00 0.00 0.00 0.00 0.00 0.00 0.00 0.00 0.00 0.00 0.00 0.00
0.15 0.21 0.24 0.21 0.14 0.07 0.03 0.02 0.01 0.00 0.00 0.00 0.00 0.00 0.00 0.00 0.00 0.00 0.00 0.00 0.00 0.00 0.00 0.00 0.00 0.00 0.00 0.00 0.00 0.00 0.00 0.00 0.00 0.00 0.00 0.00 0.00 0.00 0.00 0.00 0.00 0.00 0.00 0.00 0.00
0.04 0.03 0.06 0.07 0.07 0.06 0.06 0.07 0.03 0.00 0.00 0.00 0.00 0.00 0.00 0.00 0.00 0.00 0.00 0.00 0.00 0.00 0.00 0.00 0.00 0.00 0.00 0.00 0.00 0.00 0.00 0.00 0.00 0.00 0.00 0.00 0.00 0.00 0.00 0.00 0.00 0.00 0.00 0.00 0.00
0.05 0.03 0.03 0.02 0.02 0.04 0.02 0.02 0.01 0.00 0.00 0.00 0.00 0.00 0.00 0.00 0.00 0.00 0.00 0.00 0.00 0.00 0.00 0.00 0.00 0.00 0.00 0.00 0.00 0.00 0.00 0.00 0.00 0.00 0.00 0.00 0.00 0.00 0.00 0.00 0.00 0.00 0.00 0.00 0.00
0.09 0.05 0.05 0.05 0.04 0.01 0.01 0.00 0.00 0.00 0.03 0.00 0.00 0.00 0.00 0.00 0.00 0.00 0.00 0.00 0.00 0.00 0.00 0.00 0.00 0.00 0.00 0.00 0.00 0.00 0.00 0.00 0.00 0.00 0.00 0.00 0.00 0.00 0.00 0.00 0.00 0.00 0.00 0.00 0.00
0.15 0.05 0.03 0.02 0.02 0.02 0.00 0.00 0.00 0.01 0.21 0.01 0.00 0.00 0.00 0.00 0.00 0.00 0.00 0.00 0.00 0.00 0.00 0.00 0.00 0.00 0.00 0.00 0.00 0.00 0.00 0.00 0.00 0.00 0.00 0.00 0.00 0.00 0.00 0.00 0.01 0.01 0.01 0.01 0.01
0.41 0.16 0.06 0.04 0.04 0.01 0.01 0.01 0.03 0.15 0.16 0.00 0.00 0.00 0.00 0.00 0.00 0.00 0.00 0.00 0.00 0.00 0.00 0.00 0.00 0.00 0.00 0.00 0.00 0.00 0.00 0.00 0.00 0.00 0.00 0.00 0.00 0.00 0.01 0.01 0.01 0.02 0.03 0.03 0.06
0.37 0.34 0.16 0.02 0.01 0.03 0.05 0.10 0.18 0.19 0.02 0.00 0.00 0.00 0.00 0.00 0.00 0.00 0.00 0.00 0.00 0.00 0.00 0.00 0.00 0.00 0.00 0.00 0.00 0.00 0.00 0.03 0.01 0.00 0.00 0.00 0.00 0.00 0.02 0.01 0.01 0.03 0.08 0.18 0.24
0.26 0.30 0.29 0.07 0.01 0.07 0.32 0.33 0.21 0.03 0.00 0.00 0.00 0.00 0.00 0.00 0.00 0.00 0.00 0.00 0.00 0.00 0.00 0.00 0.00 0.00 0.00 0.00 0.00 0.00 0.00 0.02 0.01 0.00 0.00 0.00 0.00 0.00 0.02 0.01 0.06 0.16 0.22 0.27 0.43
0.42 0.49 0.47 0.19 0.12 0.28 0.78 0.82 0.09 0.00 0.00 0.00 0.00 0.00 0.00 0.00 0.00 0.00 0.00 0.00 0.00 0.00 0.00 0.00 0.00 0.00 0.00 0.00 0.00 0.00 0.00 0.01 0.05 0.05 0.03 0.00 0.00 0.02 0.01 0.03 0.07 0.16 0.23 0.26 0.35
0.81 0.66 0.57 0.14 0.24 0.63 1.26 0.72 0.02 0.00 0.00 0.00 0.00 0.00 0.00 0.00 0.00 0.00 0.00 0.00 0.00 0.00 0.00 0.00 0.00 0.00 0.00 0.00 0.00 0.00 0.00 0.02 0.08 0.06 0.01 0.00 0.00 0.01 0.01 0.05 0.09 0.15 0.17 0.24 0.30
1.29 1.35 0.66 0.12 0.62 1.49 1.57 0.48 0.01 0.00 0.00 0.00 0.00 0.00 0.00 0.00 0.00 0.00 0.01 0.00 0.00 0.00 0.00 0.00 0.01 0.00 0.00 0.00 0.00 0.00 0.01 0.01 0.05 0.02 0.01 0.01 0.00 0.00 0.00 0.00 0.02 0.08 0.15 0.21 0.18
1.43 1.17 0.43 0.40 1.23 1.57 0.80 0.11 0.00 0.00 0.00 0.00 0.00 0.00 0.00 0.00 0.00 0.00 0.01 0.02 0.00 0.00 0.01 0.03 0.07 0.02 0.00 0.00 0.01 0.02 0.02 0.05 0.12 0.09 0.06 0.07 0.03 0.00 0.00 0.01 0.00 0.00 0.00 0.03 0.04
1.30 0.94 0.46 0.72 1.16 0.89 0.31 0.05 0.01 0.00 0.01 0.03 0.01 0.00 0.00 0.00 0.01 0.00 0.02 0.04 0.05 0.03 0.05 0.13 0.15 0.12 0.10 0.09 0.05 0.03 0.01 0.04 0.10 0.19 0.15 0.18 0.04 0.00 0.01 0.01 0.00 0.00 0.00 0.00 0.00
1.20 1.03 1.18 1.17 0.70 0.33 0.22 0.14 0.08 0.01 0.02 0.06 0.07 0.02 0.01 0.00 0.01 0.01 0.08 0.08 0.07 0.13 0.20 0.23 0.12 0.08 0.07 0.07 0.09 0.11 0.07 0.11 0.22 0.35 0.17 0.08 0.02 0.02 0.03 0.04 0.02 0.02 0.03 0.01 0.00
1.39 0.96 0.72 1.12 0.71 0.21 0.11 0.09 0.04 0.02 0.04 0.10 0.34 0.09 0.03 0.04 0.01 0.03 0.09 0.11 0.12 0.20 0.28 0.45 0.42 0.24 0.07 0.08 0.11 0.12 0.09 0.08 0.19 0.21 0.28 0.09 0.05 0.01 0.01 0.07 0.06 0.05 0.07 0.06 0.02
1.27 0.60 0.41 0.26 0.18 0.18 0.17 0.11 0.04 0.01 0.04 0.07 0.11 0.04 0.12 0.09 0.03 0.04 0.10 0.13 0.07 0.04 0.15 0.28 0.38 0.33 0.19 0.18 0.13 0.11 0.05 0.03 0.09 0.09 0.13 0.08 0.07 0.01 0.00 0.02 0.04 0.06 0.07 0.06 0.02
1.13 0.44 0.30 0.29 0.14 0.31 0.27 0.09 0.04 0.06 0.04 0.02 0.06 0.14 0.17 0.12 0.14 0.10 0.12 0.10 0.10 0.09 0.12 0.14 0.11 0.18 0.17 0.15 0.34 0.32 0.02 0.01 0.02 0.02 0.02 0.02 0.01 0.00 0.00 0.00 0.00 0.01 0.04 0.02 0.02

GFSSW_prec_precacc24_141.txt.gz
Total_Precipitation_Accumulation
0.00 0.00 0.00 0.00 0.00 0.00 0.00 0.00 0.00 0.00 0.00 0.00 0.00 0.00 0.00 0.00 0.00 0.00 0.00 0.00 0.00 0.00 0.00 0.00 0.00 0.00 0.00 0.00 0.00 0.00 0.00 0.00 0.00 0.00 0.00 0.00 0.00 0.00 0.00 0.00 0.00 0.00 0.00 0.00 0.00
0.00 0.00 0.00 0.00 0.01 0.01 0.00 0.00 0.00 0.00 0.00 0.00 0.00 0.00 0.00 0.00 0.00 0.00 0.00 0.00 0.00 0.00 0.00 0.00 0.00 0.00 0.00 0.00 0.00 0.00 0.00 0.00 0.00 0.00 0.00 0.00 0.00 0.00 0.00 0.00 0.00 0.00 0.00 0.00 0.00
0.00 0.00 0.00 0.00 0.00 0.00 0.00 0.00 0.00 0.00 0.00 0.00 0.00 0.00 0.00 0.00 0.00 0.00 0.00 0.00 0.00 0.00 0.00 0.00 0.00 0.00 0.00 0.00 0.00 0.00 0.00 0.00 0.00 0.00 0.00 0.00 0.00 0.00 0.00 0.00 0.00 0.00 0.00 0.00 0.00
0.00 0.00 0.00 0.00 0.00 0.00 0.00 0.00 0.00 0.00 0.00 0.00 0.00 0.00 0.00 0.00 0.00 0.00 0.00 0.00 0.00 0.00 0.00 0.00 0.00 0.00 0.00 0.00 0.00 0.00 0.00 0.00 0.00 0.00 0.00 0.00 0.00 0.00 0.00 0.00 0.00 0.00 0.00 0.00 0.00
0.01 0.01 0.01 0.00 0.00 0.00 0.00 0.00 0.00 0.00 0.00 0.00 0.00 0.00 0.00 0.00 0.00 0.00 0.00 0.00 0.00 0.00 0.00 0.00 0.00 0.00 0.00 0.00 0.00 0.00 0.00 0.00 0.00 0.00 0.00 0.00 0.00 0.00 0.00 0.00 0.00 0.00 0.00 0.00 0.00
0.12 0.12 0.10 0.08 0.04 0.01 0.00 0.00 0.00 0.00 0.00 0.00 0.00 0.00 0.00 0.00 0.00 0.00 0.00 0.00 0.00 0.00 0.00 0.00 0.00 0.00 0.00 0.00 0.00 0.00 0.00 0.00 0.00 0.00 0.00 0.00 0.00 0.00 0.00 0.00 0.00 0.00 0.00 0.00 0.00
0.42 0.31 0.22 0.12 0.07 0.03 0.01 0.00 0.00 0.00 0.00 0.00 0.00 0.00 0.00 0.00 0.00 0.00 0.00 0.00 0.00 0.00 0.00 0.00 0.00 0.00 0.00 0.00 0.00 0.00 0.00 0.00 0.00 0.00 0.00 0.00 0.00 0.00 0.00 0.00 0.00 0.00 0.00 0.00 0.00
0.61 0.41 0.23 0.12 0.07 0.03 0.01 0.00 0.00 0.00 0.00 0.01 0.00 0.00 0.00 0.00 0.00 0.00 0.00 0.00 0.00 0.00 0.00 0.00 0.00 0.00 0.00 0.00 0.00 0.00 0.00 0.00 0.00 0.00 0.00 0.00 0.00 0.00 0.00 0.00 0.00 0.00 0.00 0.00 0.00
0.38 0.27 0.18 0.10 0.04 0.01 0.00 0.00 0.00 0.01 0.01 0.00 0.00 0.00 0.00 0.00 0.00 0.00 0.00 0.00 0.00 0.00 0.00 0.00 0.00 0.00 0.00 0.00 0.00 0.00 0.00 0.00 0.00 0.00 0.00 0.00 0.00 0.00 0.00 0.00 0.00 0.00 0.00 0.00 0.00
0.24 0.20 0.14 0.09 0.06 0.03 0.02 0.01 0.01 0.00 0.00 0.00 0.00 0.00 0.00 0.00 0.00 0.00 0.00 0.00 0.00 0.00 0.00 0.00 0.00 0.00 0.00 0.00 0.00 0.00 0.00 0.00 0.00 0.00 0.00 0.00 0.00 0.00 0.00 0.00 0.00 0.00 0.00 0.00 0.00
0.16 0.21 0.26 0.23 0.17 0.10 0.05 0.03 0.02 0.01 0.00 0.00 0.00 0.00 0.00 0.00 0.00 0.00 0.00 0.00 0.00 0.00 0.00 0.00 0.00 0.00 0.00 0.00 0.00 0.00 0.00 0.00 0.00 0.00 0.00 0.00 0.00 0.00 0.00 0.00 0.00 0.00 0.00 0.00 0.00
0.04 0.04 0.06 0.08 0.07 0.06 0.05 0.07 0.05 0.03 0.01 0.00 0.00 0.00 0.00 0.00 0.00 0.00 0.00 0.00 0.00 0.00 0.00 0.00 0.00 0.00 0.00 0.00 0.00 0.00 0.00 0.00 0.00 0.00 0.00 0.00 0.00 0.00 0.00 0.00 0.00 0.00 0.00 0.00 0.00
0.06 0.03 0.03 0.02 0.02 0.03 0.02 0.02 0.01 0.00 0.00 0.00 0.00 0.00 0.00 0.00 0.00 0.00 0.00 0.00 0.00 0.00 0.00 0.00 0.00 0.00 0.00 0.00 0.00 0.00 0.00 0.00 0.00 0.00 0.00 0.00 0.00 0.00 0.00 0.00 0.00 0.00 0.00 0.00 0.00
0.09 0.05 0.05 0.04 0.03 0.01 0.01 0.00 0.00 0.00 0.03 0.00 0.00 0.00 0.00 0.00 0.00 0.00 0.00 0.00 0.00 0.00 0.00 0.00 0.00 0.00 0.00 0.00 0.00 0.00 0.00 0.00 0.00 0.00 0.00 0.00 0.00 0.00 0.00 0.00 0.00 0.00 0.00 0.00 0.00
0.16 0.08 0.03 0.01 0.02 0.02 0.00 0.00 0.00 0.01 0.21 0.01 0.00 0.00 0.00 0.00 0.00 0.00 0.00 0.00 0.00 0.00 0.00 0.00 0.00 0.00 0.00 0.00 0.00 0.00 0.00 0.00 0.00 0.00 0.00 0.00 0.00 0.00 0.00 0.00 0.01 0.01 0.01 0.01 0.01
0.42 0.19 0.07 0.04 0.02 0.01 0.01 0.01 0.03 0.15 0.16 0.00 0.00 0.00 0.00 0.00 0.00 0.00 0.00 0.00 0.00 0.00 0.00 0.00 0.00 0.00 0.00 0.00 0.00 0.00 0.00 0.00 0.00 0.00 0.00 0.00 0.00 0.00 0.00 0.01 0.01 0.02 0.02 0.03 0.04
0.44 0.48 0.19 0.02 0.00 0.03 0.05 0.09 0.19 0.19 0.02 0.00 0.00 0.00 0.00 0.00 0.00 0.00 0.00 0.00 0.00 0.00 0.00 0.00 0.00 0.00 0.00 0.00 0.00 0.00 0.00 0.02 0.01 0.00 0.00 0.00 0.00 0.00 0.00 0.00 0.00 0.00 0.02 0.05 0.07
0.28 0.52 0.45 0.11 0.05 0.07 0.30 0.32 0.23 0.03 0.00 0.00 0.00 0.00 0.00 0.00 0.00 0.00 0.00 0.00 0.00 0.00 0.00 0.00 0.00 0.00 0.00 0.00 0.00 0.00 0.00 0.02 0.00 0.00 0.00 0.00 0.00 0.00 0.00 0.00 0.00 0.00 0.01 0.04 0.08
0.42 0.52 0.55 0.29 0.21 0.29 0.75 0.80 0.09 0.00 0.00 0.00 0.00 0.00 0.00 0.00 0.00 0.00 0.00 0.00 0.00 0.00 0.00 0.00 0.00 0.00 0.00 0.00 0.00 0.00 0.00 0.01 0.05 0.05 0.03 0.00 0.00 0.00 0.00 0.00 0.00 0.00 0.00 0.01 0.03
0.81 0.66 0.57 0.15 0.34 0.74 1.45 0.77 0.02 0.00 0.00 0.00 0.00 0.00 0.00 0.00 0.00 0.00 0.00 0.00 0.00 0.00 0.00 0.00 0.00 0.00 0.00 0.00 0.00 0.00 0.00 0.02 0.09 0.09 0.02 0.00 0.00 0.00 0.00 0.01 0.01 0.01 0.01 0.01 0.01
1.29 1.35 0.66 0.12 0.62 1.66 1.72 0.53 0.01 0.00 0.00 0.00 0.00 0.00 0.00 0.00 0.00 0.00 0.01 0.00 0.00 0.00 0.00 0.00 0.00 0.00 0.00 0.00 0.00 0.00 0.01 0.01 0.05 0.03 0.01 0.00 0.00 0.00 0.00 0.00 0.00 0.00 0.00 0.00 0.00
1.40 1.16 0.43 0.39 1.14 1.57 0.84 0.12 0.00 0.00 0.00 0.00 0.00 0.00 0.00 0.00 0.00 0.00 0.02 0.03 0.00 0.00 0.00 0.00 0.03 0.01 0.00 0.00 0.01 0.02 0.02 0.05 0.12 0.09 0.06 0.07 0.03 0.00 0.00 0.00 0.00 0.00 0.00 0.00 0.00
1.26 0.88 0.45 0.67 1.12 0.84 0.30 0.04 0.00 0.00 0.01 0.02 0.01 0.00 0.00 0.00 0.00 0.00 0.03 0.05 0.06 0.03 0.05 0.10 0.15 0.12 0.07 0.06 0.03 0.01 0.01 0.04 0.10 0.18 0.13 0.18 0.04 0.00 0.00 0.00 0.00 0.00 0.00 0.00 0.00
1.13 0.96 1.06 1.08 0.68 0.33 0.20 0.11 0.05 0.00 0.02 0.05 0.08 0.01 0.01 0.00 0.01 0.01 0.08 0.09 0.08 0.14 0.20 0.26 0.29 0.30 0.19 0.08 0.08 0.10 0.06 0.11 0.22 0.35 0.18 0.08 0.02 0.00 0.01 0.04 0.02 0.02 0.03 0.01 0.00
1.25 0.87 0.70 1.05 0.69 0.20 0.10 0.08 0.03 0.01 0.03 0.08 0.33 0.11 0.03 0.05 0.01 0.03 0.09 0.11 0.13 0.23 0.31 0.50 0.61 0.46 0.27 0.17 0.14 0.12 0.08 0.07 0.19 0.22 0.30 0.10 0.05 0.01 0.01 0.08 0.06 0.05 0.07 0.06 0.02
1.14 0.54 0.38 0.26 0.18 0.18 0.16 0.10 0.04 0.01 0.04 0.06 0.10 0.02 0.08 0.10 0.03 0.04 0.10 0.13 0.07 0.05 0.18 0.33 0.49 0.47 0.30 0.35 0.27 0.16 0.06 0.04 0.13 0.16 0.24 0.17 0.09 0.01 0.01 0.03 0.05 0.06 0.07 0.06 0.05
1.11 0.43 0.22 0.23 0.14 0.31 0.25 0.08 0.04 0.04 0.03 0.02 0.06 0.13 0.11 0.04 0.11 0.09 0.13 0.11 0.11 0.10 0.16 0.18 0.15 0.22 0.20 0.21 0.31 0.24 0.03 0.03 0.05 0.09 0.13 0.19 0.10 0.04 0.03 0.03 0.00 0.01 0.04 0.02 0.02

GFSSW_prec_precacc24_144.txt.gz
Total_Precipitation_Accumulation
0.00 0.00 0.00 0.00 0.00 0.00 0.00 0.00 0.00 0.00 0.00 0.00 0.00 0.00 0.00 0.00 0.00 0.00 0.00 0.00 0.00 0.00 0.00 0.00 0.00 0.00 0.00 0.00 0.00 0.00 0.00 0.00 0.00 0.00 0.00 0.00 0.00 0.00 0.00 0.00 0.00 0.00 0.00 0.00 0.00
0.00 0.00 0.00 0.00 0.01 0.01 0.00 0.00 0.00 0.00 0.00 0.00 0.00 0.00 0.00 0.00 0.00 0.00 0.00 0.00 0.00 0.00 0.00 0.00 0.00 0.00 0.00 0.00 0.00 0.00 0.00 0.00 0.00 0.00 0.00 0.00 0.00 0.00 0.00 0.00 0.00 0.00 0.00 0.00 0.00
0.00 0.00 0.00 0.00 0.00 0.00 0.00 0.00 0.00 0.00 0.00 0.00 0.00 0.00 0.00 0.00 0.00 0.00 0.00 0.00 0.00 0.00 0.00 0.00 0.00 0.00 0.00 0.00 0.00 0.00 0.00 0.00 0.00 0.00 0.00 0.00 0.00 0.00 0.00 0.00 0.00 0.00 0.00 0.00 0.00
0.00 0.00 0.00 0.00 0.00 0.00 0.00 0.00 0.00 0.00 0.00 0.00 0.00 0.00 0.00 0.00 0.00 0.00 0.00 0.00 0.00 0.00 0.00 0.00 0.00 0.00 0.00 0.00 0.00 0.00 0.00 0.00 0.00 0.00 0.00 0.00 0.00 0.00 0.00 0.00 0.00 0.00 0.00 0.00 0.00
0.01 0.01 0.01 0.00 0.00 0.00 0.00 0.00 0.00 0.00 0.00 0.00 0.00 0.00 0.00 0.00 0.00 0.00 0.00 0.00 0.00 0.00 0.00 0.00 0.00 0.00 0.00 0.00 0.00 0.00 0.00 0.00 0.00 0.00 0.00 0.00 0.00 0.00 0.00 0.00 0.00 0.00 0.00 0.00 0.00
0.12 0.12 0.10 0.08 0.05 0.02 0.00 0.00 0.00 0.00 0.00 0.00 0.00 0.00 0.00 0.00 0.00 0.00 0.00 0.00 0.00 0.00 0.00 0.00 0.00 0.00 0.00 0.00 0.00 0.00 0.00 0.00 0.00 0.00 0.00 0.00 0.00 0.00 0.00 0.00 0.00 0.00 0.00 0.00 0.00
0.45 0.33 0.23 0.13 0.07 0.03 0.01 0.00 0.00 0.00 0.00 0.00 0.00 0.00 0.00 0.00 0.00 0.00 0.00 0.00 0.00 0.00 0.00 0.00 0.00 0.00 0.00 0.00 0.00 0.00 0.00 0.00 0.00 0.00 0.00 0.00 0.00 0.00 0.00 0.00 0.00 0.00 0.00 0.00 0.00
0.78 0.50 0.27 0.15 0.08 0.04 0.01 0.00 0.00 0.00 0.00 0.00 0.00 0.00 0.00 0.00 0.00 0.00 0.00 0.00 0.00 0.00 0.00 0.00 0.00 0.00 0.00 0.00 0.00 0.00 0.00 0.00 0.00 0.00 0.00 0.00 0.00 0.00 0.00 0.00 0.00 0.00 0.00 0.00 0.00
0.46 0.32 0.20 0.12 0.05 0.01 0.00 0.00 0.00 0.00 0.00 0.00 0.00 0.00 0.00 0.00 0.00 0.00 0.00 0.00 0.00 0.00 0.00 0.00 0.00 0.00 0.00 0.00 0.00 0.00 0.00 0.00 0.00 0.00 0.00 0.00 0.00 0.00 0.00 0.00 0.00 0.00 0.00 0.00 0.00
0.26 0.21 0.15 0.10 0.06 0.03 0.02 0.01 0.01 0.00 0.00 0.00 0.00 0.00 0.00 0.00 0.00 0.00 0.00 0.00 0.00 0.00 0.00 0.00 0.00 0.00 0.00 0.00 0.00 0.00 0.00 0.00 0.00 0.00 0.00 0.00 0.00 0.00 0.00 0.00 0.00 0.00 0.00 0.00 0.00
0.16 0.22 0.26 0.23 0.17 0.10 0.05 0.03 0.02 0.01 0.00 0.00 0.00 0.00 0.00 0.00 0.00 0.00 0.00 0.00 0.00 0.00 0.00 0.00 0.00 0.00 0.00 0.00 0.00 0.00 0.00 0.00 0.00 0.00 0.00 0.00 0.00 0.00 0.00 0.00 0.00 0.00 0.00 0.00 0.00
0.04 0.04 0.07 0.08 0.07 0.06 0.05 0.07 0.05 0.03 0.01 0.00 0.00 0.00 0.00 0.00 0.00 0.00 0.00 0.00 0.00 0.00 0.00 0.00 0.00 0.00 0.00 0.00 0.00 0.00 0.00 0.00 0.00 0.00 0.00 0.00 0.00 0.00 0.00 0.00 0.00 0.00 0.00 0.00 0.00
0.06 0.03 0.04 0.04 0.03 0.03 0.01 0.02 0.01 0.00 0.00 0.00 0.00 0.00 0.00 0.00 0.00 0.00 0.00 0.00 0.00 0.00 0.00 0.00 0.00 0.00 0.00 0.00 0.00 0.00 0.00 0.00 0.00 0.00 0.00 0.00 0.00 0.00 0.00 0.00 0.00 0.00 0.00 0.00 0.00
0.09 0.05 0.05 0.05 0.03 0.00 0.01 0.00 0.00 0.00 0.03 0.00 0.00 0.00 0.00 0.00 0.00 0.00 0.00 0.00 0.00 0.00 0.00 0.00 0.00 0.00 0.00 0.00 0.00 0.00 0.00 0.00 0.00 0.00 0.00 0.00 0.00 0.00 0.00 0.00 0.00 0.00 0.00 0.00 0.00
0.19 0.08 0.03 0.01 0.02 0.02 0.00 0.00 0.00 0.01 0.21 0.01 0.00 0.00 0.00 0.00 0.00 0.00 0.00 0.00 0.00 0.00 0.00 0.00 0.00 0.00 0.00 0.00 0.00 0.00 0.00 0.00 0.00 0.00 0.00 0.00 0.00 0.00 0.00 0.00 0.00 0.00 0.00 0.00 0.00
0.44 0.20 0.07 0.04 0.02 0.01 0.01 0.01 0.03 0.15 0.16 0.00 0.00 0.00 0.00 0.00 0.00 0.00 0.00 0.00 0.00 0.00 0.00 0.00 0.00 0.00 0.00 0.00 0.00 0.00 0.00 0.00 0.00 0.00 0.00 0.00 0.00 0.00 0.00 0.00 0.00 0.00 0.00 0.00 0.00
0.45 0.50 0.22 0.02 0.00 0.03 0.05 0.09 0.19 0.19 0.02 0.00 0.00 0.00 0.00 0.00 0.00 0.00 0.00 0.00 0.00 0.00 0.00 0.00 0.00 0.00 0.00 0.00 0.00 0.00 0.00 0.00 0.00 0.00 0.00 0.00 0.00 0.00 0.00 0.00 0.00 0.00 0.00 0.00 0.00
0.28 0.59 0.55 0.13 0.05 0.07 0.28 0.31 0.23 0.03 0.00 0.00 0.00 0.00 0.00 0.00 0.00 0.00 0.00 0.00 0.00 0.00 0.00 0.00 0.00 0.00 0.00 0.00 0.00 0.00 0.00 0.02 0.00 0.00 0.00 0.00 0.00 0.00 0.00 0.00 0.00 0.00 0.00 0.00 0.00
0.42 0.66 0.77 0.44 0.29 0.29 0.72 0.82 0.09 0.00 0.00 0.00 0.00 0.00 0.00 0.00 0.00 0.00 0.00 0.00 0.00 0.00 0.00 0.00 0.00 0.00 0.00 0.00 0.00 0.00 0.00 0.02 0.04 0.06 0.04 0.00 0.00 0.00 0.00 0.00 0.00 0.00 0.00 0.00 0.00
0.82 0.71 0.66 0.27 0.54 0.88 1.47 0.79 0.02 0.00 0.00 0.00 0.00 0.00 0.00 0.00 0.00 0.00 0.00 0.00 0.00 0.00 0.00 0.00 0.00 0.00 0.00 0.00 0.00 0.00 0.00 0.01 0.11 0.23 0.06 0.01 0.00 0.00 0.00 0.00 0.00 0.00 0.00 0.00 0.00
1.28 1.35 0.68 0.14 0.72 1.83 1.91 0.56 0.01 0.00 0.00 0.00 0.00 0.00 0.00 0.00 0.00 0.00 0.01 0.00 0.00 0.00 0.00 0.00 0.00 0.00 0.00 0.00 0.00 0.00 0.00 0.01 0.05 0.05 0.06 0.03 0.00 0.00 0.00 0.00 0.00 0.00 0.00 0.00 0.00
1.38 1.15 0.43 0.40 1.07 1.57 0.87 0.14 0.00 0.00 0.00 0.00 0.00 0.00 0.00 0.00 0.00 0.00 0.02 0.03 0.00 0.00 0.00 0.00 0.03 0.02 0.00 0.00 0.00 0.01 0.01 0.05 0.13 0.14 0.08 0.08 0.05 0.00 0.00 0.00 0.00 0.00 0.00 0.00 0.00
1.23 0.86 0.44 0.60 1.09 0.77 0.28 0.04 0.00 0.00 0.01 0.02 0.01 0.00 0.00 0.00 0.00 0.00 0.03 0.05 0.05 0.03 0.03 0.05 0.16 0.19 0.08 0.06 0.03 0.01 0.01 0.04 0.09 0.18 0.21 0.25 0.08 0.00 0.00 0.00 0.00 0.00 0.00 0.00 0.00
1.07 0.91 0.99 1.00 0.66 0.32 0.20 0.09 0.04 0.00 0.02 0.04 0.07 0.01 0.01 0.00 0.00 0.00 0.08 0.09 0.08 0.13 0.18 0.21 0.28 0.34 0.26 0.12 0.12 0.12 0.06 0.09 0.16 0.27 0.21 0.10 0.03 0.00 0.00 0.03 0.02 0.02 0.03 0.01 0.00
1.13 0.80 0.68 0.98 0.67 0.20 0.09 0.07 0.03 0.01 0.02 0.07 0.31 0.10 0.02 0.05 0.01 0.03 0.09 0.11 0.12 0.22 0.30 0.45 0.59 0.48 0.32 0.22 0.19 0.19 0.11 0.05 0.12 0.17 0.31 0.13 0.06 0.01 0.01 0.08 0.06 0.05 0.07 0.06 0.02
0.94 0.51 0.37 0.25 0.18 0.16 0.13 0.09 0.04 0.01 0.03 0.05 0.09 0.02 0.06 0.09 0.04 0.04 0.09 0.12 0.08 0.06 0.17 0.31 0.48 0.47 0.32 0.36 0.29 0.19 0.06 0.04 0.11 0.17 0.27 0.27 0.13 0.03 0.03 0.07 0.06 0.06 0.07 0.06 0.05
0.94 0.38 0.21 0.23 0.14 0.29 0.21 0.08 0.04 0.04 0.03 0.02 0.05 0.12 0.10 0.04 0.11 0.09 0.12 0.10 0.10 0.09 0.16 0.20 0.16 0.23 0.20 0.21 0.30 0.20 0.03 0.04 0.06 0.13 0.23 0.28 0.14 0.07 0.11 0.08 0.01 0.01 0.05 0.02 0.02

GFSSW_prec_precacc24_150.txt.gz
Total_Precipitation_Accumulation
0.00 0.00 0.00 0.00 0.00 0.00 0.00 0.00 0.00 0.00 0.00 0.00 0.00 0.00 0.00 0.00 0.00 0.00 0.00 0.00 0.00 0.00 0.00 0.00 0.00 0.00 0.00 0.00 0.00 0.00 0.00 0.00 0.00 0.00 0.00 0.00 0.00 0.00 0.00 0.00 0.00 0.00 0.00 0.00 0.00
0.00 0.00 0.00 0.00 0.01 0.01 0.00 0.00 0.00 0.00 0.00 0.00 0.00 0.00 0.00 0.00 0.00 0.00 0.00 0.00 0.00 0.00 0.00 0.00 0.00 0.00 0.00 0.00 0.00 0.00 0.00 0.00 0.00 0.00 0.00 0.00 0.00 0.00 0.00 0.00 0.00 0.00 0.00 0.00 0.00
0.00 0.00 0.00 0.00 0.00 0.00 0.00 0.00 0.00 0.00 0.00 0.00 0.00 0.00 0.00 0.00 0.00 0.00 0.00 0.00 0.00 0.00 0.00 0.00 0.00 0.00 0.00 0.00 0.00 0.00 0.00 0.00 0.00 0.00 0.00 0.00 0.00 0.00 0.00 0.00 0.00 0.00 0.00 0.00 0.00
0.00 0.00 0.00 0.00 0.00 0.00 0.00 0.00 0.00 0.00 0.00 0.00 0.00 0.00 0.00 0.00 0.00 0.00 0.00 0.00 0.00 0.00 0.00 0.00 0.00 0.00 0.00 0.00 0.00 0.00 0.00 0.00 0.00 0.00 0.00 0.00 0.00 0.00 0.00 0.00 0.00 0.00 0.00 0.00 0.00
0.01 0.01 0.01 0.00 0.00 0.00 0.00 0.00 0.00 0.00 0.00 0.00 0.00 0.00 0.00 0.00 0.00 0.00 0.00 0.00 0.00 0.00 0.00 0.00 0.00 0.00 0.00 0.00 0.00 0.00 0.00 0.00 0.00 0.00 0.00 0.00 0.00 0.00 0.00 0.00 0.00 0.00 0.00 0.00 0.00
0.12 0.12 0.10 0.08 0.05 0.02 0.00 0.00 0.00 0.00 0.00 0.00 0.00 0.00 0.00 0.00 0.00 0.00 0.00 0.00 0.00 0.00 0.00 0.00 0.00 0.00 0.00 0.00 0.00 0.00 0.00 0.00 0.00 0.00 0.00 0.00 0.00 0.00 0.00 0.00 0.00 0.00 0.00 0.00 0.00
0.45 0.33 0.23 0.13 0.07 0.03 0.01 0.00 0.00 0.00 0.00 0.00 0.00 0.00 0.00 0.00 0.00 0.00 0.00 0.00 0.00 0.00 0.00 0.00 0.00 0.00 0.00 0.00 0.00 0.00 0.00 0.00 0.00 0.00 0.00 0.00 0.00 0.00 0.00 0.00 0.00 0.00 0.00 0.00 0.00
0.80 0.54 0.30 0.17 0.10 0.07 0.05 0.03 0.01 0.00 0.00 0.00 0.00 0.00 0.00 0.00 0.00 0.00 0.00 0.00 0.00 0.00 0.00 0.00 0.00 0.00 0.00 0.00 0.00 0.00 0.00 0.00 0.00 0.00 0.00 0.00 0.00 0.00 0.00 0.00 0.00 0.00 0.00 0.00 0.00
0.55 0.46 0.37 0.20 0.10 0.05 0.03 0.03 0.02 0.01 0.00 0.00 0.00 0.00 0.00 0.00 0.00 0.00 0.00 0.00 0.00 0.00 0.00 0.00 0.00 0.00 0.00 0.00 0.00 0.00 0.00 0.00 0.00 0.00 0.00 0.00 0.00 0.00 0.00 0.00 0.00 0.00 0.00 0.00 0.00
0.38 0.31 0.26 0.21 0.09 0.03 0.03 0.02 0.01 0.00 0.00 0.00 0.00 0.00 0.00 0.00 0.00 0.00 0.00 0.00 0.00 0.00 0.00 0.00 0.00 0.00 0.00 0.00 0.00 0.00 0.00 0.00 0.00 0.00 0.00 0.00 0.00 0.00 0.00 0.00 0.00 0.00 0.00 0.00 0.00
0.31 0.31 0.32 0.30 0.22 0.11 0.05 0.03 0.02 0.01 0.00 0.00 0.00 0.00 0.00 0.00 0.00 0.00 0.00 0.00 0.00 0.00 0.00 0.00 0.00 0.00 0.00 0.00 0.00 0.00 0.00 0.00 0.00 0.00 0.00 0.00 0.00 0.00 0.00 0.00 0.00 0.00 0.00 0.00 0.00
0.22 0.22 0.23 0.20 0.14 0.08 0.07 0.07 0.05 0.03 0.01 0.00 0.00 0.00 0.00 0.00 0.00 0.00 0.00 0.00 0.00 0.00 0.00 0.00 0.00 0.00 0.00 0.00 0.00 0.00 0.00 0.00 0.00 0.00 0.00 0.00 0.00 0.00 0.00 0.00 0.00 0.00 0.00 0.00 0.00
0.21 0.23 0.27 0.30 0.30 0.21 0.12 0.05 0.01 0.00 0.00 0.00 0.00 0.00 0.00 0.00 0.00 0.00 0.00 0.00 0.00 0.00 0.00 0.00 0.00 0.00 0.00 0.00 0.00 0.00 0.00 0.00 0.00 0.00 0.00 0.00 0.00 0.00 0.00 0.00 0.00 0.00 0.00 0.00 0.00
0.16 0.17 0.18 0.19 0.20 0.17 0.15 0.05 0.01 0.00 0.07 0.00 0.00 0.00 0.00 0.00 0.00 0.00 0.00 0.00 0.00 0.00 0.00 0.00 0.00 0.00 0.00 0.00 0.00 0.00 0.00 0.00 0.00 0.00 0.00 0.00 0.00 0.00 0.00 0.00 0.00 0.00 0.00 0.00 0.00
0.20 0.10 0.04 0.03 0.03 0.04 0.03 0.01 0.00 0.02 0.31 0.02 0.00 0.00 0.00 0.00 0.00 0.00 0.00 0.00 0.00 0.00 0.00 0.00 0.00 0.00 0.00 0.00 0.00 0.00 0.00 0.00 0.00 0.00 0.00 0.00 0.00 0.00 0.00 0.00 0.00 0.00 0.00 0.00 0.00
0.51 0.24 0.08 0.03 0.02 0.01 0.01 0.01 0.03 0.15 0.16 0.00 0.00 0.00 0.00 0.00 0.00 0.00 0.00 0.00 0.00 0.00 0.00 0.00 0.00 0.00 0.00 0.00 0.00 0.00 0.00 0.00 0.00 0.00 0.00 0.00 0.00 0.00 0.00 0.00 0.00 0.00 0.00 0.00 0.00
0.54 0.55 0.23 0.02 0.00 0.03 0.05 0.07 0.18 0.19 0.02 0.00 0.00 0.00 0.00 0.00 0.00 0.00 0.00 0.00 0.00 0.00 0.00 0.00 0.00 0.00 0.00 0.00 0.00 0.00 0.00 0.00 0.00 0.00 0.00 0.00 0.00 0.00 0.00 0.00 0.00 0.00 0.00 0.00 0.00
0.38 0.68 0.59 0.13 0.05 0.07 0.25 0.27 0.22 0.02 0.00 0.00 0.00 0.00 0.00 0.00 0.00 0.00 0.00 0.00 0.00 0.00 0.00 0.00 0.00 0.00 0.00 0.00 0.00 0.00 0.00 0.02 0.02 0.01 0.01 0.00 0.00 0.00 0.00 0.00 0.00 0.00 0.00 0.00 0.00
0.48 0.91 0.88 0.48 0.31 0.27 0.65 0.81 0.09 0.00 0.00 0.00 0.00 0.00 0.00 0.00 0.00 0.00 0.00 0.00 0.00 0.00 0.00 0.00 0.00 0.00 0.00 0.00 0.00 0.00 0.00 0.01 0.11 0.18 0.24 0.03 0.00 0.00 0.00 0.00 0.00 0.00 0.00 0.00 0.00
0.68 0.86 0.80 0.47 0.68 0.88 1.39 0.79 0.02 0.00 0.00 0.00 0.00 0.00 0.00 0.00 0.00 0.00 0.00 0.00 0.00 0.00 0.00 0.00 0.00 0.00 0.00 0.00 0.00 0.00 0.00 0.01 0.14 0.31 0.13 0.02 0.00 0.00 0.00 0.00 0.00 0.00 0.00 0.00 0.00
1.06 1.30 0.79 0.34 0.99 2.04 1.95 0.57 0.01 0.00 0.00 0.00 0.00 0.00 0.00 0.00 0.00 0.00 0.01 0.00 0.00 0.00 0.00 0.00 0.00 0.00 0.00 0.00 0.00 0.00 0.00 0.00 0.04 0.13 0.16 0.08 0.01 0.00 0.00 0.00 0.00 0.00 0.00 0.00 0.00
1.18 1.08 0.47 0.56 1.28 1.89 0.98 0.15 0.00 0.00 0.00 0.00 0.00 0.00 0.00 0.00 0.00 0.00 0.02 0.03 0.00 0.00 0.00 0.00 0.04 0.02 0.00 0.00 0.00 0.00 0.00 0.01 0.08 0.14 0.12 0.12 0.08 0.00 0.00 0.00 0.00 0.00 0.00 0.00 0.00
1.03 0.83 0.43 0.60 1.20 0.87 0.38 0.07 0.01 0.00 0.01 0.02 0.01 0.00 0.00 0.00 0.00 0.00 0.03 0.06 0.05 0.03 0.03 0.02 0.11 0.13 0.02 0.01 0.01 0.00 0.00 0.00 0.02 0.15 0.22 0.28 0.14 0.00 0.00 0.00 0.00 0.00 0.00 0.00 0.00
0.82 0.73 0.87 0.91 0.67 0.32 0.20 0.10 0.04 0.00 0.01 0.04 0.07 0.01 0.00 0.00 0.00 0.00 0.08 0.09 0.09 0.13 0.19 0.18 0.24 0.29 0.22 0.07 0.09 0.08 0.03 0.03 0.10 0.25 0.23 0.13 0.05 0.00 0.00 0.03 0.02 0.02 0.02 0.01 0.00
0.75 0.57 0.59 0.82 0.58 0.20 0.11 0.08 0.03 0.01 0.01 0.06 0.30 0.10 0.02 0.04 0.01 0.03 0.09 0.11 0.13 0.23 0.31 0.44 0.58 0.47 0.32 0.21 0.17 0.17 0.10 0.03 0.08 0.14 0.28 0.15 0.08 0.01 0.00 0.06 0.05 0.03 0.06 0.06 0.02
0.61 0.36 0.33 0.24 0.17 0.15 0.11 0.09 0.04 0.01 0.01 0.03 0.08 0.02 0.04 0.08 0.03 0.05 0.09 0.11 0.07 0.06 0.18 0.32 0.49 0.47 0.32 0.36 0.27 0.18 0.06 0.04 0.10 0.16 0.24 0.23 0.09 0.02 0.03 0.05 0.04 0.04 0.06 0.06 0.05
0.54 0.30 0.21 0.21 0.12 0.22 0.16 0.07 0.04 0.03 0.02 0.01 0.03 0.07 0.06 0.03 0.06 0.04 0.07 0.06 0.07 0.07 0.12 0.18 0.16 0.25 0.21 0.21 0.30 0.19 0.03 0.04 0.06 0.13 0.23 0.28 0.14 0.07 0.11 0.10 0.03 0.02 0.06 0.04 0.03

GFSSW_prec_precacc24_153.txt.gz
Total_Precipitation_Accumulation
0.00 0.00 0.00 0.00 0.00 0.00 0.00 0.00 0.00 0.00 0.00 0.00 0.00 0.00 0.00 0.00 0.00 0.00 0.00 0.00 0.00 0.00 0.00 0.00 0.00 0.00 0.00 0.00 0.00 0.00 0.00 0.00 0.00 0.00 0.00 0.00 0.00 0.00 0.00 0.00 0.00 0.00 0.00 0.00 0.00
0.00 0.00 0.00 0.00 0.01 0.01 0.00 0.00 0.00 0.00 0.00 0.00 0.00 0.00 0.00 0.00 0.00 0.00 0.00 0.00 0.00 0.00 0.00 0.00 0.00 0.00 0.00 0.00 0.00 0.00 0.00 0.00 0.00 0.00 0.00 0.00 0.00 0.00 0.00 0.00 0.00 0.00 0.00 0.00 0.00
0.00 0.00 0.00 0.00 0.00 0.00 0.00 0.00 0.00 0.00 0.00 0.00 0.00 0.00 0.00 0.00 0.00 0.00 0.00 0.00 0.00 0.00 0.00 0.00 0.00 0.00 0.00 0.00 0.00 0.00 0.00 0.00 0.00 0.00 0.00 0.00 0.00 0.00 0.00 0.00 0.00 0.00 0.00 0.00 0.00
0.00 0.00 0.00 0.00 0.00 0.00 0.00 0.00 0.00 0.00 0.00 0.00 0.00 0.00 0.00 0.00 0.00 0.00 0.00 0.00 0.00 0.00 0.00 0.00 0.00 0.00 0.00 0.00 0.00 0.00 0.00 0.00 0.00 0.00 0.00 0.00 0.00 0.00 0.00 0.00 0.00 0.00 0.00 0.00 0.00
0.01 0.01 0.01 0.00 0.00 0.00 0.00 0.00 0.00 0.00 0.00 0.00 0.00 0.00 0.00 0.00 0.00 0.00 0.00 0.00 0.00 0.00 0.00 0.00 0.00 0.00 0.00 0.00 0.00 0.00 0.00 0.00 0.00 0.00 0.00 0.00 0.00 0.00 0.00 0.00 0.00 0.00 0.00 0.00 0.00
0.12 0.12 0.10 0.08 0.05 0.02 0.00 0.00 0.00 0.00 0.00 0.00 0.00 0.00 0.00 0.00 0.00 0.00 0.00 0.00 0.00 0.00 0.00 0.00 0.00 0.00 0.00 0.00 0.00 0.00 0.00 0.00 0.00 0.00 0.00 0.00 0.00 0.00 0.00 0.00 0.00 0.00 0.00 0.00 0.00
0.45 0.33 0.23 0.13 0.07 0.03 0.01 0.00 0.00 0.00 0.00 0.00 0.00 0.00 0.00 0.00 0.00 0.00 0.00 0.00 0.00 0.00 0.00 0.00 0.00 0.00 0.00 0.00 0.00 0.00 0.00 0.00 0.00 0.00 0.00 0.00 0.00 0.00 0.00 0.00 0.00 0.00 0.00 0.00 0.00
0.79 0.54 0.30 0.17 0.10 0.07 0.05 0.04 0.01 0.01 0.00 0.00 0.00 0.00 0.00 0.00 0.00 0.00 0.00 0.00 0.00 0.00 0.00 0.00 0.00 0.00 0.00 0.00 0.00 0.00 0.00 0.00 0.00 0.00 0.00 0.00 0.00 0.00 0.00 0.00 0.00 0.00 0.00 0.00 0.00
0.58 0.48 0.38 0.21 0.11 0.06 0.04 0.03 0.02 0.01 0.00 0.00 0.00 0.00 0.00 0.00 0.00 0.00 0.00 0.00 0.00 0.00 0.00 0.00 0.00 0.00 0.00 0.00 0.00 0.00 0.00 0.00 0.00 0.00 0.00 0.00 0.00 0.00 0.00 0.00 0.00 0.00 0.00 0.00 0.00
0.44 0.35 0.29 0.23 0.11 0.07 0.06 0.04 0.01 0.00 0.00 0.00 0.00 0.00 0.00 0.00 0.00 0.00 0.00 0.00 0.00 0.00 0.00 0.00 0.00 0.00 0.00 0.00 0.00 0.00 0.00 0.00 0.00 0.00 0.00 0.00 0.00 0.00 0.00 0.00 0.00 0.00 0.00 0.00 0.00
0.39 0.38 0.36 0.32 0.24 0.12 0.06 0.03 0.02 0.01 0.00 0.00 0.00 0.00 0.00 0.00 0.00 0.00 0.00 0.00 0.00 0.00 0.00 0.00 0.00 0.00 0.00 0.00 0.00 0.00 0.00 0.00 0.00 0.00 0.00 0.00 0.00 0.00 0.00 0.00 0.00 0.00 0.00 0.00 0.00
0.27 0.30 0.29 0.25 0.22 0.13 0.07 0.08 0.06 0.03 0.01 0.00 0.00 0.00 0.00 0.00 0.00 0.00 0.00 0.00 0.00 0.00 0.00 0.00 0.00 0.00 0.00 0.00 0.00 0.00 0.00 0.00 0.00 0.00 0.00 0.00 0.00 0.00 0.00 0.00 0.00 0.00 0.00 0.00 0.00
0.27 0.29 0.33 0.33 0.34 0.31 0.17 0.07 0.02 0.01 0.01 0.00 0.00 0.00 0.00 0.00 0.00 0.00 0.00 0.00 0.00 0.00 0.00 0.00 0.00 0.00 0.00 0.00 0.00 0.00 0.00 0.00 0.00 0.00 0.00 0.00 0.00 0.00 0.00 0.00 0.00 0.00 0.00 0.00 0.00
0.24 0.27 0.26 0.25 0.25 0.21 0.22 0.14 0.06 0.01 0.13 0.01 0.00 0.00 0.00 0.00 0.00 0.00 0.00 0.00 0.00 0.00 0.00 0.00 0.00 0.00 0.00 0.00 0.00 0.00 0.00 0.00 0.00 0.00 0.00 0.00 0.00 0.00 0.00 0.00 0.00 0.00 0.00 0.00 0.00
0.22 0.12 0.07 0.05 0.03 0.04 0.04 0.06 0.05 0.06 0.43 0.02 0.00 0.00 0.00 0.00 0.00 0.00 0.00 0.00 0.00 0.00 0.00 0.00 0.00 0.00 0.00 0.00 0.00 0.00 0.00 0.00 0.00 0.00 0.00 0.00 0.00 0.00 0.00 0.00 0.00 0.00 0.00 0.00 0.00
0.51 0.25 0.10 0.03 0.01 0.01 0.00 0.01 0.03 0.20 0.23 0.00 0.00 0.00 0.00 0.00 0.00 0.00 0.00 0.00 0.00 0.00 0.00 0.00 0.00 0.00 0.00 0.00 0.00 0.00 0.00 0.00 0.00 0.00 0.00 0.00 0.00 0.00 0.00 0.00 0.00 0.00 0.00 0.00 0.00
0.54 0.55 0.23 0.02 0.01 0.02 0.03 0.05 0.19 0.22 0.02 0.00 0.00 0.00 0.00 0.00 0.00 0.00 0.00 0.00 0.00 0.00 0.00 0.00 0.00 0.00 0.00 0.00 0.00 0.00 0.00 0.00 0.00 0.00 0.00 0.00 0.00 0.00 0.00 0.00 0.00 0.00 0.00 0.00 0.00
0.36 0.68 0.59 0.13 0.05 0.06 0.19 0.23 0.20 0.02 0.00 0.00 0.00 0.00 0.00 0.00 0.00 0.00 0.00 0.00 0.00 0.00 0.00 0.00 0.00 0.00 0.00 0.00 0.00 0.00 0.00 0.02 0.03 0.02 0.01 0.00 0.00 0.00 0.00 0.00 0.00 0.00 0.00 0.00 0.00
0.50 0.91 0.89 0.48 0.31 0.24 0.61 0.73 0.07 0.00 0.00 0.00 0.00 0.00 0.00 0.00 0.00 0.00 0.00 0.00 0.00 0.00 0.00 0.00 0.00 0.00 0.00 0.00 0.00 0.00 0.00 0.01 0.12 0.19 0.25 0.03 0.00 0.00 0.00 0.00 0.00 0.00 0.00 0.00 0.00
0.46 0.86 0.86 0.51 0.68 0.87 1.36 0.74 0.01 0.00 0.00 0.00 0.00 0.00 0.00 0.00 0.00 0.00 0.00 0.00 0.00 0.00 0.00 0.00 0.00 0.00 0.00 0.00 0.00 0.00 0.00 0.02 0.17 0.35 0.16 0.03 0.00 0.00 0.00 0.00 0.00 0.00 0.00 0.00 0.00
0.37 0.82 0.73 0.45 1.02 2.03 1.85 0.55 0.01 0.00 0.00 0.00 0.00 0.00 0.00 0.00 0.00 0.00 0.01 0.00 0.00 0.00 0.00 0.00 0.00 0.00 0.00 0.00 0.00 0.00 0.00 0.01 0.07 0.16 0.19 0.08 0.01 0.00 0.00 0.00 0.00 0.00 0.00 0.00 0.00
0.35 0.60 0.41 0.68 1.41 1.93 0.94 0.16 0.00 0.00 0.00 0.00 0.00 0.00 0.00 0.00 0.00 0.00 0.02 0.03 0.00 0.00 0.00 0.00 0.05 0.02 0.00 0.00 0.00 0.00 0.00 0.01 0.10 0.16 0.15 0.14 0.09 0.00 0.00 0.00 0.00 0.00 0.00 0.00 0.00
0.21 0.36 0.31 0.62 1.19 0.90 0.39 0.09 0.01 0.00 0.01 0.02 0.01 0.00 0.00 0.00 0.00 0.00 0.03 0.06 0.05 0.03 0.03 0.01 0.10 0.13 0.02 0.00 0.00 0.00 0.00 0.00 0.02 0.12 0.20 0.25 0.13 0.00 0.00 0.00 0.00 0.00 0.00 0.00 0.00
0.13 0.23 0.47 0.73 0.65 0.34 0.23 0.13 0.06 0.00 0.00 0.04 0.06 0.00 0.00 0.00 0.00 0.00 0.08 0.09 0.09 0.13 0.19 0.17 0.24 0.29 0.22 0.06 0.06 0.05 0.01 0.01 0.06 0.19 0.18 0.10 0.04 0.00 0.00 0.03 0.02 0.02 0.02 0.01 0.00
0.17 0.19 0.30 0.58 0.52 0.23 0.15 0.11 0.06 0.03 0.01 0.04 0.28 0.09 0.02 0.04 0.01 0.03 0.09 0.10 0.13 0.23 0.31 0.44 0.58 0.47 0.32 0.21 0.15 0.15 0.08 0.02 0.06 0.11 0.22 0.12 0.06 0.01 0.00 0.06 0.05 0.03 0.06 0.06 0.02
0.16 0.12 0.16 0.23 0.17 0.20 0.14 0.12 0.09 0.04 0.02 0.03 0.08 0.02 0.04 0.07 0.03 0.05 0.09 0.10 0.07 0.06 0.18 0.32 0.48 0.47 0.31 0.36 0.27 0.18 0.06 0.04 0.10 0.16 0.24 0.23 0.09 0.02 0.03 0.05 0.04 0.04 0.06 0.06 0.05
0.09 0.09 0.12 0.16 0.12 0.22 0.16 0.08 0.05 0.03 0.02 0.01 0.03 0.04 0.04 0.02 0.04 0.03 0.05 0.04 0.04 0.04 0.08 0.15 0.15 0.24 0.20 0.21 0.30 0.19 0.03 0.04 0.06 0.13 0.23 0.29 0.14 0.07 0.11 0.10 0.03 0.02 0.06 0.04 0.03

GFSSW_prec_precacc24_156.txt.gz
Total_Precipitation_Accumulation
0.00 0.00 0.00 0.00 0.00 0.00 0.00 0.00 0.00 0.00 0.00 0.00 0.00 0.00 0.00 0.00 0.00 0.00 0.00 0.00 0.00 0.00 0.00 0.00 0.00 0.00 0.00 0.00 0.00 0.00 0.00 0.00 0.00 0.00 0.00 0.00 0.00 0.00 0.00 0.00 0.00 0.00 0.00 0.00 0.00
0.00 0.00 0.00 0.00 0.01 0.01 0.00 0.00 0.00 0.00 0.00 0.00 0.00 0.00 0.00 0.00 0.00 0.00 0.00 0.00 0.00 0.00 0.00 0.00 0.00 0.00 0.00 0.00 0.00 0.00 0.00 0.00 0.00 0.00 0.00 0.00 0.00 0.00 0.00 0.00 0.00 0.00 0.00 0.00 0.00
0.00 0.00 0.00 0.00 0.00 0.00 0.00 0.00 0.00 0.00 0.00 0.00 0.00 0.00 0.00 0.00 0.00 0.00 0.00 0.00 0.00 0.00 0.00 0.00 0.00 0.00 0.00 0.00 0.00 0.00 0.00 0.00 0.00 0.00 0.00 0.00 0.00 0.00 0.00 0.00 0.00 0.00 0.00 0.00 0.00
0.00 0.00 0.00 0.00 0.00 0.00 0.00 0.00 0.00 0.00 0.00 0.00 0.00 0.00 0.00 0.00 0.00 0.00 0.00 0.00 0.00 0.00 0.00 0.00 0.00 0.00 0.00 0.00 0.00 0.00 0.00 0.00 0.00 0.00 0.00 0.00 0.00 0.00 0.00 0.00 0.00 0.00 0.00 0.00 0.00
0.00 0.00 0.00 0.00 0.00 0.00 0.00 0.00 0.00 0.00 0.00 0.00 0.00 0.00 0.00 0.00 0.00 0.00 0.00 0.00 0.00 0.00 0.00 0.00 0.00 0.00 0.00 0.00 0.00 0.00 0.00 0.00 0.00 0.00 0.00 0.00 0.00 0.00 0.00 0.00 0.00 0.00 0.00 0.00 0.00
0.11 0.11 0.09 0.08 0.05 0.02 0.00 0.00 0.00 0.00 0.00 0.00 0.00 0.00 0.00 0.00 0.00 0.00 0.00 0.00 0.00 0.00 0.00 0.00 0.00 0.00 0.00 0.00 0.00 0.00 0.00 0.00 0.00 0.00 0.00 0.00 0.00 0.00 0.00 0.00 0.00 0.00 0.00 0.00 0.00
0.43 0.32 0.23 0.13 0.07 0.03 0.01 0.00 0.00 0.00 0.00 0.00 0.00 0.00 0.00 0.00 0.00 0.00 0.00 0.00 0.00 0.00 0.00 0.00 0.00 0.00 0.00 0.00 0.00 0.00 0.00 0.00 0.00 0.00 0.00 0.00 0.00 0.00 0.00 0.00 0.00 0.00 0.00 0.00 0.00
0.73 0.51 0.30 0.17 0.10 0.07 0.05 0.04 0.02 0.01 0.00 0.00 0.00 0.00 0.00 0.00 0.00 0.00 0.00 0.00 0.00 0.00 0.00 0.00 0.00 0.00 0.00 0.00 0.00 0.00 0.00 0.00 0.00 0.00 0.00 0.00 0.00 0.00 0.00 0.00 0.00 0.00 0.00 0.00 0.00
0.51 0.43 0.36 0.20 0.10 0.06 0.04 0.04 0.03 0.02 0.00 0.00 0.00 0.00 0.00 0.00 0.00 0.00 0.00 0.00 0.00 0.00 0.00 0.00 0.00 0.00 0.00 0.00 0.00 0.00 0.00 0.00 0.00 0.00 0.00 0.00 0.00 0.00 0.00 0.00 0.00 0.00 0.00 0.00 0.00
0.42 0.35 0.29 0.24 0.12 0.09 0.09 0.06 0.03 0.01 0.00 0.00 0.00 0.00 0.00 0.00 0.00 0.00 0.00 0.00 0.00 0.00 0.00 0.00 0.00 0.00 0.00 0.00 0.00 0.00 0.00 0.00 0.00 0.00 0.00 0.00 0.00 0.00 0.00 0.00 0.00 0.00 0.00 0.00 0.00
0.43 0.42 0.38 0.33 0.27 0.15 0.08 0.05 0.03 0.01 0.00 0.00 0.00 0.00 0.00 0.00 0.00 0.00 0.00 0.00 0.00 0.00 0.00 0.00 0.00 0.00 0.00 0.00 0.00 0.00 0.00 0.00 0.00 0.00 0.00 0.00 0.00 0.00 0.00 0.00 0.00 0.00 0.00 0.00 0.00
0.30 0.34 0.35 0.32 0.26 0.18 0.11 0.11 0.06 0.04 0.01 0.00 0.00 0.00 0.00 0.00 0.00 0.00 0.00 0.00 0.00 0.00 0.00 0.00 0.00 0.00 0.00 0.00 0.00 0.00 0.00 0.00 0.00 0.00 0.00 0.00 0.00 0.00 0.00 0.00 0.00 0.00 0.00 0.00 0.00
0.30 0.33 0.39 0.45 0.49 0.40 0.27 0.10 0.02 0.01 0.01 0.00 0.00 0.00 0.00 0.00 0.00 0.00 0.00 0.00 0.00 0.00 0.00 0.00 0.00 0.00 0.00 0.00 0.00 0.00 0.00 0.00 0.00 0.00 0.00 0.00 0.00 0.00 0.00 0.00 0.00 0.00 0.00 0.00 0.00
0.22 0.28 0.34 0.41 0.48 0.35 0.35 0.18 0.07 0.02 0.16 0.01 0.00 0.00 0.00 0.00 0.00 0.00 0.00 0.00 0.00 0.00 0.00 0.00 0.00 0.00 0.00 0.00 0.00 0.00 0.00 0.00 0.00 0.00 0.00 0.00 0.00 0.00 0.00 0.00 0.00 0.00 0.00 0.00 0.00
0.23 0.14 0.11 0.16 0.19 0.18 0.15 0.11 0.07 0.12 0.46 0.02 0.00 0.00 0.00 0.00 0.00 0.00 0.00 0.00 0.00 0.00 0.00 0.00 0.00 0.00 0.00 0.00 0.00 0.00 0.00 0.00 0.00 0.00 0.00 0.00 0.00 0.00 0.00 0.00 0.00 0.00 0.00 0.00 0.00
0.51 0.29 0.16 0.16 0.07 0.07 0.06 0.05 0.09 0.37 0.31 0.00 0.00 0.00 0.00 0.00 0.00 0.00 0.00 0.00 0.00 0.00 0.00 0.00 0.00 0.00 0.00 0.00 0.00 0.00 0.00 0.00 0.00 0.00 0.00 0.00 0.00 0.00 0.00 0.00 0.00 0.00 0.00 0.00 0.00
0.47 0.56 0.31 0.05 0.05 0.03 0.03 0.05 0.26 0.29 0.02 0.00 0.00 0.00 0.00 0.00 0.00 0.00 0.00 0.00 0.00 0.00 0.00 0.00 0.00 0.00 0.00 0.00 0.00 0.00 0.00 0.00 0.01 0.00 0.00 0.00 0.00 0.00 0.00 0.00 0.00 0.00 0.00 0.00 0.00
0.24 0.57 0.59 0.15 0.05 0.03 0.13 0.27 0.34 0.03 0.00 0.00 0.00 0.00 0.00 0.00 0.00 0.00 0.00 0.00 0.00 0.00 0.00 0.00 0.00 0.00 0.00 0.00 0.00 0.00 0.00 0.02 0.03 0.02 0.01 0.00 0.00 0.00 0.00 0.00 0.00 0.00 0.00 0.00 0.00
0.30 0.69 0.84 0.47 0.32 0.21 0.53 0.65 0.10 0.00 0.00 0.00 0.00 0.00 0.00 0.00 0.00 0.00 0.00 0.00 0.00 0.00 0.00 0.00 0.00 0.00 0.00 0.00 0.00 0.00 0.00 0.01 0.13 0.19 0.25 0.03 0.00 0.00 0.01 0.00 0.00 0.00 0.00 0.00 0.00
0.47 0.50 0.60 0.53 0.68 0.86 1.25 0.62 0.01 0.00 0.00 0.00 0.00 0.00 0.00 0.00 0.00 0.00 0.00 0.00 0.00 0.00 0.00 0.00 0.00 0.00 0.00 0.00 0.00 0.00 0.00 0.03 0.19 0.36 0.16 0.03 0.00 0.00 0.00 0.00 0.00 0.00 0.00 0.00 0.00
0.25 0.36 0.40 0.44 0.96 1.95 1.66 0.45 0.01 0.00 0.00 0.00 0.00 0.00 0.00 0.00 0.00 0.00 0.01 0.00 0.00 0.00 0.00 0.00 0.00 0.00 0.00 0.00 0.00 0.00 0.00 0.01 0.08 0.17 0.20 0.08 0.01 0.00 0.00 0.00 0.00 0.00 0.00 0.00 0.00
0.26 0.29 0.29 0.64 1.15 1.71 0.84 0.14 0.00 0.00 0.00 0.00 0.00 0.00 0.00 0.00 0.00 0.00 0.02 0.03 0.00 0.00 0.00 0.00 0.05 0.02 0.00 0.00 0.00 0.00 0.00 0.02 0.12 0.17 0.16 0.15 0.10 0.00 0.00 0.00 0.00 0.00 0.00 0.00 0.00
0.08 0.16 0.28 0.56 0.78 0.77 0.42 0.10 0.01 0.00 0.00 0.01 0.01 0.00 0.00 0.00 0.00 0.00 0.02 0.04 0.05 0.03 0.03 0.01 0.10 0.13 0.02 0.00 0.00 0.00 0.00 0.00 0.01 0.12 0.20 0.26 0.14 0.00 0.00 0.00 0.00 0.00 0.00 0.00 0.00
0.03 0.05 0.25 0.47 0.46 0.34 0.31 0.14 0.06 0.01 0.01 0.03 0.06 0.00 0.00 0.00 0.00 0.00 0.06 0.08 0.08 0.13 0.19 0.17 0.24 0.29 0.21 0.06 0.06 0.04 0.01 0.01 0.05 0.16 0.16 0.09 0.03 0.00 0.00 0.02 0.02 0.01 0.02 0.01 0.00
0.03 0.02 0.05 0.19 0.31 0.27 0.22 0.16 0.07 0.04 0.01 0.04 0.25 0.09 0.02 0.05 0.01 0.03 0.08 0.10 0.13 0.23 0.31 0.44 0.58 0.47 0.32 0.21 0.14 0.13 0.06 0.01 0.04 0.08 0.19 0.11 0.04 0.01 0.00 0.04 0.04 0.03 0.06 0.06 0.02
0.02 0.01 0.03 0.03 0.04 0.21 0.22 0.21 0.13 0.05 0.02 0.03 0.07 0.02 0.04 0.06 0.03 0.05 0.09 0.11 0.07 0.07 0.18 0.32 0.49 0.47 0.31 0.36 0.28 0.15 0.03 0.03 0.10 0.16 0.24 0.23 0.09 0.02 0.03 0.05 0.04 0.04 0.06 0.06 0.05
0.00 0.01 0.04 0.05 0.05 0.14 0.17 0.11 0.10 0.04 0.02 0.02 0.03 0.05 0.05 0.02 0.03 0.02 0.03 0.02 0.03 0.04 0.07 0.14 0.15 0.24 0.18 0.20 0.29 0.18 0.03 0.04 0.06 0.13 0.23 0.29 0.14 0.07 0.11 0.10 0.03 0.02 0.04 0.03 0.03

GFSSW_prec_precacc24_159.txt.gz
Total_Precipitation_Accumulation
0.00 0.00 0.00 0.00 0.00 0.00 0.00 0.00 0.00 0.00 0.00 0.00 0.00 0.00 0.00 0.00 0.00 0.00 0.00 0.00 0.00 0.00 0.00 0.00 0.00 0.00 0.00 0.00 0.00 0.00 0.00 0.00 0.00 0.00 0.00 0.00 0.00 0.00 0.00 0.00 0.00 0.00 0.00 0.00 0.00
0.00 0.00 0.00 0.00 0.01 0.01 0.00 0.00 0.00 0.00 0.00 0.00 0.00 0.00 0.00 0.00 0.00 0.00 0.00 0.00 0.00 0.00 0.00 0.00 0.00 0.00 0.00 0.00 0.00 0.00 0.00 0.00 0.00 0.00 0.00 0.00 0.00 0.00 0.00 0.00 0.00 0.00 0.00 0.00 0.00
0.00 0.00 0.00 0.00 0.00 0.00 0.00 0.00 0.00 0.00 0.00 0.00 0.00 0.00 0.00 0.00 0.00 0.00 0.00 0.00 0.00 0.00 0.00 0.00 0.00 0.00 0.00 0.00 0.00 0.00 0.00 0.00 0.00 0.00 0.00 0.00 0.00 0.00 0.00 0.00 0.00 0.00 0.00 0.00 0.00
0.00 0.00 0.00 0.00 0.00 0.00 0.00 0.00 0.00 0.00 0.00 0.00 0.00 0.00 0.00 0.00 0.00 0.00 0.00 0.00 0.00 0.00 0.00 0.00 0.00 0.00 0.00 0.00 0.00 0.00 0.00 0.00 0.00 0.00 0.00 0.00 0.00 0.00 0.00 0.00 0.00 0.00 0.00 0.00 0.00
0.00 0.00 0.00 0.00 0.00 0.00 0.00 0.00 0.00 0.00 0.00 0.00 0.00 0.00 0.00 0.00 0.00 0.00 0.00 0.00 0.00 0.00 0.00 0.00 0.00 0.00 0.00 0.00 0.00 0.00 0.00 0.00 0.00 0.00 0.00 0.00 0.00 0.00 0.00 0.00 0.00 0.00 0.00 0.00 0.00
0.07 0.08 0.08 0.07 0.04 0.02 0.00 0.00 0.00 0.00 0.00 0.00 0.00 0.00 0.00 0.00 0.00 0.00 0.00 0.00 0.00 0.00 0.00 0.00 0.00 0.00 0.00 0.00 0.00 0.00 0.00 0.00 0.00 0.00 0.00 0.00 0.00 0.00 0.00 0.00 0.00 0.00 0.00 0.00 0.00
0.20 0.21 0.17 0.10 0.07 0.03 0.01 0.00 0.00 0.00 0.00 0.00 0.00 0.00 0.00 0.00 0.00 0.00 0.00 0.00 0.00 0.00 0.00 0.00 0.00 0.00 0.00 0.00 0.00 0.00 0.00 0.00 0.00 0.00 0.00 0.00 0.00 0.00 0.00 0.00 0.00 0.00 0.00 0.00 0.00
0.47 0.33 0.20 0.12 0.08 0.06 0.05 0.04 0.02 0.01 0.00 0.00 0.00 0.00 0.00 0.00 0.00 0.00 0.00 0.00 0.00 0.00 0.00 0.00 0.00 0.00 0.00 0.00 0.00 0.00 0.00 0.00 0.00 0.00 0.00 0.00 0.00 0.00 0.00 0.00 0.00 0.00 0.00 0.00 0.00
0.39 0.35 0.30 0.16 0.08 0.05 0.04 0.04 0.03 0.02 0.01 0.00 0.00 0.00 0.00 0.00 0.00 0.00 0.00 0.00 0.00 0.00 0.00 0.00 0.00 0.00 0.00 0.00 0.00 0.00 0.00 0.00 0.00 0.00 0.00 0.00 0.00 0.00 0.00 0.00 0.00 0.00 0.00 0.00 0.00
0.30 0.26 0.26 0.23 0.12 0.09 0.09 0.07 0.04 0.01 0.00 0.00 0.00 0.00 0.00 0.00 0.00 0.00 0.00 0.00 0.00 0.00 0.00 0.00 0.00 0.00 0.00 0.00 0.00 0.00 0.00 0.00 0.00 0.00 0.00 0.00 0.00 0.00 0.00 0.00 0.00 0.00 0.00 0.00 0.00
0.35 0.31 0.29 0.27 0.25 0.15 0.10 0.06 0.05 0.02 0.00 0.00 0.00 0.00 0.00 0.00 0.00 0.00 0.00 0.00 0.00 0.00 0.00 0.00 0.00 0.00 0.00 0.00 0.00 0.00 0.00 0.00 0.00 0.00 0.00 0.00 0.00 0.00 0.00 0.00 0.00 0.00 0.00 0.00 0.00
0.29 0.32 0.32 0.29 0.25 0.21 0.14 0.11 0.07 0.04 0.01 0.00 0.00 0.00 0.00 0.00 0.00 0.00 0.00 0.00 0.00 0.00 0.00 0.00 0.00 0.00 0.00 0.00 0.00 0.00 0.00 0.00 0.00 0.00 0.00 0.00 0.00 0.00 0.00 0.00 0.00 0.00 0.00 0.00 0.00
0.32 0.33 0.38 0.45 0.57 0.58 0.37 0.12 0.02 0.01 0.05 0.00 0.00 0.00 0.00 0.00 0.00 0.00 0.00 0.00 0.00 0.00 0.00 0.00 0.00 0.00 0.00 0.00 0.00 0.00 0.00 0.00 0.00 0.00 0.00 0.00 0.00 0.00 0.00 0.00 0.00 0.00 0.00 0.00 0.00
0.25 0.31 0.38 0.49 0.75 0.47 0.41 0.23 0.12 0.09 0.35 0.05 0.00 0.00 0.00 0.00 0.00 0.00 0.00 0.00 0.00 0.00 0.00 0.00 0.00 0.00 0.00 0.00 0.00 0.00 0.00 0.00 0.00 0.00 0.00 0.00 0.00 0.00 0.00 0.00 0.00 0.00 0.00 0.00 0.00
0.27 0.18 0.15 0.25 0.35 0.26 0.19 0.17 0.20 0.38 0.79 0.05 0.00 0.00 0.00 0.00 0.00 0.00 0.00 0.00 0.00 0.00 0.00 0.00 0.00 0.00 0.00 0.00 0.00 0.00 0.00 0.00 0.00 0.00 0.00 0.00 0.00 0.00 0.00 0.00 0.00 0.00 0.00 0.00 0.00
0.47 0.32 0.29 0.47 0.29 0.16 0.11 0.14 0.28 0.74 0.55 0.01 0.00 0.00 0.00 0.00 0.00 0.00 0.00 0.00 0.00 0.00 0.00 0.00 0.00 0.00 0.00 0.00 0.00 0.00 0.00 0.00 0.00 0.00 0.00 0.00 0.00 0.00 0.00 0.00 0.00 0.00 0.00 0.00 0.00
0.52 0.56 0.38 0.30 0.21 0.09 0.11 0.16 0.42 0.50 0.06 0.01 0.00 0.00 0.00 0.00 0.00 0.00 0.00 0.00 0.00 0.00 0.00 0.00 0.00 0.00 0.00 0.00 0.00 0.00 0.00 0.00 0.01 0.00 0.00 0.00 0.00 0.00 0.00 0.00 0.00 0.00 0.00 0.00 0.00
0.30 0.67 0.71 0.29 0.17 0.08 0.21 0.40 0.48 0.07 0.00 0.00 0.00 0.00 0.00 0.00 0.00 0.00 0.00 0.00 0.00 0.00 0.00 0.00 0.00 0.00 0.00 0.00 0.00 0.00 0.00 0.02 0.03 0.02 0.01 0.00 0.00 0.00 0.00 0.00 0.00 0.00 0.00 0.00 0.00
0.50 0.87 0.82 0.54 0.38 0.31 0.41 0.60 0.16 0.01 0.00 0.00 0.00 0.00 0.00 0.00 0.00 0.00 0.00 0.00 0.00 0.00 0.00 0.00 0.00 0.00 0.00 0.00 0.00 0.00 0.00 0.01 0.13 0.19 0.25 0.03 0.00 0.01 0.01 0.00 0.00 0.00 0.00 0.00 0.00
0.80 0.86 0.67 0.61 0.75 0.80 1.09 0.60 0.03 0.00 0.00 0.00 0.00 0.00 0.00 0.00 0.00 0.00 0.00 0.00 0.00 0.00 0.00 0.00 0.00 0.00 0.00 0.00 0.00 0.00 0.00 0.04 0.19 0.36 0.16 0.03 0.00 0.00 0.00 0.00 0.00 0.00 0.00 0.00 0.00
0.42 0.61 0.71 0.66 1.00 1.73 1.42 0.39 0.01 0.00 0.00 0.00 0.00 0.00 0.00 0.00 0.00 0.00 0.01 0.00 0.00 0.00 0.00 0.00 0.00 0.00 0.00 0.00 0.00 0.00 0.00 0.01 0.09 0.17 0.20 0.08 0.01 0.00 0.00 0.00 0.00 0.00 0.00 0.00 0.00
0.50 0.58 0.59 1.01 1.17 1.44 0.78 0.10 0.00 0.00 0.00 0.00 0.00 0.00 0.00 0.00 0.00 0.00 0.01 0.02 0.00 0.00 0.00 0.00 0.05 0.02 0.00 0.00 0.00 0.00 0.00 0.02 0.12 0.17 0.16 0.16 0.10 0.00 0.00 0.00 0.00 0.00 0.00 0.00 0.00
0.35 0.43 0.54 0.79 0.83 0.67 0.39 0.11 0.02 0.02 0.00 0.00 0.00 0.00 0.00 0.00 0.00 0.00 0.02 0.03 0.05 0.02 0.03 0.01 0.10 0.13 0.02 0.00 0.00 0.00 0.00 0.00 0.02 0.13 0.21 0.28 0.15 0.00 0.00 0.00 0.00 0.00 0.00 0.00 0.00
0.24 0.26 0.53 0.74 0.52 0.19 0.21 0.13 0.08 0.03 0.01 0.01 0.05 0.00 0.00 0.00 0.00 0.00 0.01 0.02 0.04 0.09 0.17 0.16 0.23 0.29 0.21 0.06 0.06 0.04 0.01 0.01 0.05 0.15 0.15 0.09 0.03 0.00 0.00 0.00 0.00 0.00 0.00 0.00 0.00
0.15 0.14 0.14 0.40 0.40 0.27 0.16 0.13 0.07 0.05 0.02 0.01 0.13 0.08 0.01 0.04 0.01 0.02 0.02 0.02 0.03 0.09 0.17 0.32 0.48 0.44 0.32 0.21 0.14 0.12 0.05 0.01 0.03 0.06 0.16 0.11 0.04 0.01 0.00 0.02 0.02 0.01 0.02 0.03 0.02
0.02 0.03 0.05 0.07 0.09 0.24 0.26 0.24 0.16 0.08 0.02 0.02 0.05 0.02 0.02 0.05 0.03 0.04 0.05 0.05 0.06 0.05 0.12 0.26 0.41 0.41 0.30 0.36 0.28 0.14 0.03 0.03 0.10 0.15 0.23 0.22 0.08 0.02 0.03 0.05 0.04 0.04 0.05 0.06 0.05
0.00 0.00 0.01 0.04 0.07 0.17 0.19 0.14 0.13 0.12 0.08 0.02 0.04 0.04 0.04 0.02 0.02 0.02 0.03 0.02 0.03 0.04 0.07 0.13 0.15 0.23 0.17 0.20 0.29 0.17 0.02 0.04 0.06 0.13 0.23 0.28 0.13 0.07 0.11 0.10 0.03 0.02 0.04 0.03 0.03

GFSSW_prec_precacc24_162.txt.gz
Total_Precipitation_Accumulation
0.00 0.00 0.00 0.00 0.00 0.00 0.00 0.00 0.00 0.00 0.00 0.00 0.00 0.00 0.00 0.00 0.00 0.00 0.00 0.00 0.00 0.00 0.00 0.00 0.00 0.00 0.00 0.00 0.00 0.00 0.00 0.00 0.00 0.00 0.00 0.00 0.00 0.00 0.00 0.00 0.00 0.00 0.00 0.00 0.00
0.00 0.00 0.00 0.00 0.00 0.00 0.00 0.00 0.00 0.00 0.00 0.00 0.00 0.00 0.00 0.00 0.00 0.00 0.00 0.00 0.00 0.00 0.00 0.00 0.00 0.00 0.00 0.00 0.00 0.00 0.00 0.00 0.00 0.00 0.00 0.00 0.00 0.00 0.00 0.00 0.00 0.00 0.00 0.00 0.00
0.00 0.00 0.00 0.00 0.00 0.00 0.00 0.00 0.00 0.00 0.00 0.00 0.00 0.00 0.00 0.00 0.00 0.00 0.00 0.00 0.00 0.00 0.00 0.00 0.00 0.00 0.00 0.00 0.00 0.00 0.00 0.00 0.00 0.00 0.00 0.00 0.00 0.00 0.00 0.00 0.00 0.00 0.00 0.00 0.00
0.00 0.00 0.00 0.00 0.00 0.00 0.00 0.00 0.00 0.00 0.00 0.00 0.00 0.00 0.00 0.00 0.00 0.00 0.00 0.00 0.00 0.00 0.00 0.00 0.00 0.00 0.00 0.00 0.00 0.00 0.00 0.00 0.00 0.00 0.00 0.00 0.00 0.00 0.00 0.00 0.00 0.00 0.00 0.00 0.00
0.00 0.00 0.00 0.00 0.00 0.00 0.00 0.00 0.00 0.00 0.00 0.00 0.00 0.00 0.00 0.00 0.00 0.00 0.00 0.00 0.00 0.00 0.00 0.00 0.00 0.00 0.00 0.00 0.00 0.00 0.00 0.00 0.00 0.00 0.00 0.00 0.00 0.00 0.00 0.00 0.00 0.00 0.00 0.00 0.00
0.01 0.00 0.01 0.02 0.02 0.01 0.00 0.00 0.00 0.00 0.00 0.00 0.00 0.00 0.00 0.00 0.00 0.00 0.00 0.00 0.00 0.00 0.00 0.00 0.00 0.00 0.00 0.00 0.00 0.00 0.00 0.00 0.00 0.00 0.00 0.00 0.00 0.00 0.00 0.00 0.00 0.00 0.00 0.00 0.00
0.08 0.03 0.02 0.01 0.02 0.02 0.01 0.00 0.00 0.00 0.00 0.00 0.00 0.00 0.00 0.00 0.00 0.00 0.00 0.00 0.00 0.00 0.00 0.00 0.00 0.00 0.00 0.00 0.00 0.00 0.00 0.00 0.00 0.00 0.00 0.00 0.00 0.00 0.00 0.00 0.00 0.00 0.00 0.00 0.00
0.29 0.19 0.10 0.06 0.03 0.04 0.04 0.03 0.02 0.01 0.00 0.00 0.00 0.00 0.00 0.00 0.00 0.00 0.00 0.00 0.00 0.00 0.00 0.00 0.00 0.00 0.00 0.00 0.00 0.00 0.00 0.00 0.00 0.00 0.00 0.00 0.00 0.00 0.00 0.00 0.00 0.00 0.00 0.00 0.00
0.27 0.24 0.22 0.12 0.07 0.04 0.04 0.04 0.03 0.02 0.01 0.00 0.00 0.00 0.00 0.00 0.00 0.00 0.00 0.00 0.00 0.00 0.00 0.00 0.00 0.00 0.00 0.00 0.00 0.00 0.00 0.00 0.00 0.00 0.00 0.00 0.00 0.00 0.00 0.00 0.00 0.00 0.00 0.00 0.00
0.24 0.19 0.17 0.16 0.07 0.06 0.08 0.07 0.05 0.02 0.00 0.00 0.00 0.00 0.00 0.00 0.00 0.00 0.00 0.00 0.00 0.00 0.00 0.00 0.00 0.00 0.00 0.00 0.00 0.00 0.00 0.00 0.00 0.00 0.00 0.00 0.00 0.00 0.00 0.00 0.00 0.00 0.00 0.00 0.00
0.31 0.22 0.15 0.13 0.13 0.09 0.07 0.04 0.04 0.02 0.00 0.00 0.00 0.00 0.00 0.00 0.00 0.00 0.00 0.00 0.00 0.00 0.00 0.00 0.00 0.00 0.00 0.00 0.00 0.00 0.00 0.00 0.00 0.00 0.00 0.00 0.00 0.00 0.00 0.00 0.00 0.00 0.00 0.00 0.00
0.42 0.32 0.30 0.26 0.21 0.17 0.10 0.06 0.04 0.04 0.01 0.00 0.00 0.00 0.00 0.00 0.00 0.00 0.00 0.00 0.00 0.00 0.00 0.00 0.00 0.00 0.00 0.00 0.00 0.00 0.00 0.00 0.00 0.00 0.00 0.00 0.00 0.00 0.00 0.00 0.00 0.00 0.00 0.00 0.00
0.48 0.48 0.43 0.46 0.57 0.60 0.39 0.11 0.01 0.01 0.05 0.00 0.00 0.00 0.00 0.00 0.00 0.00 0.00 0.00 0.00 0.00 0.00 0.00 0.00 0.00 0.00 0.00 0.00 0.00 0.00 0.00 0.00 0.00 0.00 0.00 0.00 0.00 0.00 0.00 0.00 0.00 0.00 0.00 0.00
0.28 0.48 0.57 0.59 0.87 0.53 0.44 0.24 0.13 0.11 0.50 0.08 0.00 0.00 0.00 0.00 0.00 0.00 0.00 0.00 0.00 0.00 0.00 0.00 0.00 0.00 0.00 0.00 0.00 0.00 0.00 0.00 0.00 0.00 0.00 0.00 0.00 0.00 0.00 0.00 0.00 0.00 0.00 0.00 0.00
0.29 0.32 0.29 0.44 0.47 0.29 0.22 0.19 0.27 0.58 1.22 0.08 0.00 0.00 0.00 0.00 0.00 0.00 0.00 0.00 0.00 0.00 0.00 0.00 0.00 0.00 0.00 0.00 0.00 0.00 0.00 0.00 0.00 0.00 0.00 0.00 0.00 0.00 0.00 0.00 0.00 0.00 0.00 0.00 0.00
0.29 0.41 0.48 0.82 0.39 0.21 0.19 0.28 0.56 1.30 0.97 0.02 0.00 0.00 0.00 0.00 0.00 0.00 0.00 0.00 0.00 0.00 0.00 0.00 0.00 0.00 0.00 0.00 0.00 0.00 0.00 0.00 0.00 0.00 0.00 0.00 0.00 0.00 0.00 0.00 0.00 0.00 0.00 0.00 0.00
0.39 0.47 0.47 0.56 0.47 0.14 0.20 0.36 0.84 0.95 0.15 0.01 0.00 0.00 0.00 0.00 0.00 0.00 0.00 0.00 0.00 0.00 0.00 0.00 0.00 0.00 0.00 0.00 0.00 0.00 0.00 0.00 0.01 0.00 0.00 0.00 0.00 0.00 0.00 0.00 0.00 0.00 0.00 0.00 0.00
0.32 0.74 0.84 0.51 0.24 0.21 0.47 0.75 0.90 0.23 0.01 0.00 0.00 0.00 0.00 0.00 0.00 0.00 0.00 0.00 0.00 0.00 0.00 0.00 0.00 0.00 0.00 0.00 0.00 0.00 0.00 0.02 0.03 0.02 0.01 0.00 0.00 0.00 0.00 0.00 0.00 0.00 0.00 0.00 0.00
0.57 1.03 1.08 0.86 0.52 0.28 0.47 0.97 0.61 0.07 0.00 0.00 0.00 0.00 0.00 0.00 0.00 0.00 0.00 0.00 0.00 0.00 0.00 0.00 0.00 0.00 0.00 0.00 0.00 0.00 0.00 0.01 0.13 0.19 0.25 0.03 0.00 0.01 0.01 0.00 0.00 0.00 0.00 0.00 0.00
0.95 1.23 0.94 0.81 0.84 0.93 1.20 0.70 0.11 0.01 0.00 0.00 0.01 0.00 0.00 0.00 0.00 0.00 0.00 0.00 0.00 0.00 0.00 0.00 0.00 0.00 0.00 0.00 0.00 0.00 0.00 0.04 0.20 0.36 0.16 0.03 0.00 0.00 0.00 0.00 0.00 0.00 0.00 0.00 0.00
0.68 0.89 0.91 0.80 1.21 1.82 1.62 0.75 0.13 0.01 0.00 0.02 0.04 0.00 0.00 0.00 0.00 0.00 0.00 0.00 0.00 0.00 0.00 0.00 0.00 0.00 0.00 0.00 0.00 0.00 0.00 0.01 0.09 0.17 0.20 0.08 0.01 0.00 0.00 0.00 0.00 0.00 0.00 0.00 0.00
0.72 0.83 0.85 1.23 1.44 1.53 0.94 0.27 0.07 0.00 0.01 0.03 0.03 0.00 0.00 0.00 0.00 0.00 0.00 0.01 0.00 0.00 0.00 0.00 0.05 0.02 0.00 0.00 0.00 0.00 0.00 0.02 0.13 0.17 0.16 0.16 0.10 0.00 0.00 0.00 0.00 0.00 0.00 0.00 0.00
0.50 0.59 0.82 1.13 1.15 0.90 0.46 0.16 0.04 0.03 0.01 0.03 0.02 0.00 0.00 0.00 0.00 0.00 0.01 0.02 0.00 0.00 0.01 0.01 0.10 0.12 0.02 0.00 0.00 0.00 0.00 0.00 0.02 0.13 0.21 0.30 0.15 0.00 0.00 0.00 0.00 0.00 0.00 0.00 0.00
0.40 0.42 0.81 1.13 0.91 0.37 0.35 0.19 0.15 0.08 0.04 0.01 0.02 0.00 0.00 0.00 0.00 0.00 0.01 0.02 0.02 0.01 0.03 0.09 0.20 0.28 0.21 0.06 0.06 0.04 0.01 0.01 0.05 0.14 0.15 0.09 0.03 0.00 0.00 0.00 0.00 0.00 0.00 0.00 0.00
0.37 0.39 0.31 0.67 0.65 0.46 0.26 0.20 0.17 0.17 0.13 0.04 0.03 0.04 0.01 0.04 0.01 0.00 0.00 0.02 0.01 0.04 0.05 0.09 0.21 0.26 0.27 0.19 0.13 0.11 0.05 0.01 0.03 0.05 0.15 0.11 0.04 0.01 0.00 0.00 0.00 0.00 0.00 0.00 0.00
0.35 0.30 0.21 0.19 0.23 0.40 0.42 0.36 0.22 0.16 0.14 0.11 0.02 0.01 0.02 0.06 0.03 0.02 0.03 0.04 0.04 0.04 0.07 0.11 0.17 0.16 0.14 0.18 0.18 0.10 0.01 0.02 0.05 0.12 0.20 0.22 0.08 0.02 0.03 0.04 0.02 0.00 0.00 0.00 0.03
0.22 0.14 0.12 0.19 0.20 0.29 0.33 0.24 0.23 0.20 0.15 0.05 0.02 0.03 0.03 0.02 0.01 0.00 0.01 0.01 0.02 0.02 0.06 0.11 0.11 0.16 0.11 0.08 0.16 0.11 0.01 0.03 0.04 0.11 0.21 0.27 0.13 0.07 0.11 0.10 0.03 0.01 0.02 0.01 0.02